GFSGL_925_temp_000.txt.gz
Temp
22 22 21 20 19 19 19 19 19 19 19 19 19 19 19 19 20 20 19 20 20 20 21 21 21 23 22 22 23 24 24 24 23 21 21 21 21 21 21 21 21 20 20
22 22 22 21 20 19 19 19 19 19 19 19 19 19 19 19 18 19 19 19 19 19 20 20 20 21 22 22 23 23 23 23 23 21 21 21 21 19 18 20 18 19 19
23 22 23 22 21 20 19 19 19 19 19 19 19 19 18 18 18 18 19 18 18 19 19 19 19 19 19 20 21 22 22 22 22 21 20 20 18 18 18 19 18 18 18
24 23 22 22 21 21 20 19 19 19 18 18 18 18 18 17 17 17 18 17 17 17 17 17 18 18 18 18 19 20 20 21 21 21 20 18 18 18 18 18 18 18 18
24 23 22 22 22 22 21 19 19 19 18 18 18 17 17 17 17 17 16 16 16 16 16 16 16 17 17 17 18 19 20 20 21 20 19 20 19 19 19 19 19 18 18
24 24 23 23 22 22 21 20 20 19 19 18 18 17 17 16 16 16 16 16 15 15 15 15 15 15 15 16 16 17 18 18 19 20 20 19 18 18 18 18 19 18 17
24 24 23 23 22 21 22 21 20 19 18 17 16 16 15 16 16 16 16 15 15 14 14 14 14 14 14 16 16 16 16 16 16 17 16 15 14 15 16 16 16 16 15
23 24 23 23 23 22 21 19 17 17 16 15 15 14 13 14 16 16 15 16 14 14 14 14 15 15 16 16 15 15 15 15 15 14 14 13 13 14 14 14 15 15 16
22 22 23 23 20 18 17 17 16 15 14 13 13 12 13 13 15 15 15 14 14 13 13 14 14 14 15 15 15 13 13 12 12 13 13 13 13 13 14 14 13 14 15
18 19 19 17 15 14 15 14 14 13 13 11 10 10 11 13 14 15 15 13 12 11 12 12 12 13 14 14 14 13 12 12 12 12 12 11 11 11 11 12 11 12 13
13 13 14 14 13 12 13 13 12 10 9 8 8 8 9 11 13 14 15 14 12 11 9 10 10 12 13 13 13 12 11 11 12 12 11 11 12 12 11 10 10 10 10
10 11 10 11 11 11 12 10 10 9 8 7 7 7 7 9 10 11 11 11 11 10 8 8 9 10 10 10 10 10 10 10 10 11 10 11 12 11 11 10 10 10 10
8 8 8 8 8 8 8 8 8 8 7 7 6 6 6 7 7 7 8 8 8 8 7 8 8 8 8 9 9 9 9 9 10 11 11 11 11 11 11 11 11 10 10
8 8 8 8 8 8 8 8 7 7 7 6 6 6 6 6 7 7 7 7 7 7 8 9 9 9 9 9 9 9 9 10 10 10 10 10 11 10 10 10 10 10 11
9 8 8 8 7 7 7 7 7 7 8 7 7 7 7 7 7 8 8 7 8 8 9 9 10 10 10 10 10 10 9 9 9 10 10 10 10 10 10 9 10 10 10
10 9 9 8 8 8 7 7 8 7 8 8 8 8 7 7 7 8 9 9 9 10 10 11 11 11 10 10 10 10 10 9 9 9 9 9 9 9 9 9 10 10 10
13 13 13 13 12 11 10 9 7 7 8 8 8 8 8 8 8 8 9 10 10 11 11 10 10 10 10 10 10 10 9 9 9 9 9 9 9 9 9 9 10 10 9
13 13 13 13 13 13 12 11 10 11 10 8 8 8 8 8 9 9 9 9 11 12 11 11 10 10 10 10 9 9 8 9 8 8 9 9 9 8 9 9 9 9 8
15 15 16 16 16 16 16 15 15 13 12 10 8 9 10 10 10 10 10 10 12 12 11 11 10 10 9 9 8 8 8 8 8 8 8 8 8 8 8 8 8 8 8
17 17 16 16 16 16 16 16 15 15 15 12 11 11 9 9 10 10 11 11 11 11 11 11 10 9 9 8 8 8 8 9 8 8 8 7 8 7 8 8 8 8 8
17 16 16 17 17 16 16 16 15 14 15 13 11 11 11 11 13 12 12 11 11 10 10 9 10 10 9 8 8 8 8 8 8 7 7 7 7 7 7 7 7 8 8
17 17 17 17 16 15 14 14 14 13 14 13 11 11 11 11 12 12 11 11 10 10 9 9 9 9 9 8 8 8 8 8 7 6 6 6 6 7 7 6 7 8 8
17 17 16 15 15 14 14 13 13 13 14 13 13 12 12 12 12 11 11 10 10 9 9 9 9 9 9 8 8 8 8 7 6 5 5 4 5 6 6 6 7 7 7
17 17 17 15 14 15 14 13 14 14 13 14 14 13 13 12 12 10 10 10 9 9 9 9 9 8 8 7 7 7 6 6 5 4 4 4 4 5 5 6 6 6 6
18 18 17 16 15 15 14 15 15 15 14 14 14 13 12 12 11 11 10 10 9 10 9 9 8 7 7 7 6 6 5 4 4 4 4 3 4 4 5 6 5 6 6
17 17 17 17 17 16 16 16 15 14 14 14 13 13 12 12 11 11 10 9 9 10 9 8 8 7 7 6 6 5 4 4 4 4 3 3 3 5 5 5 5 5 6

GFSGL_925_temp_003.txt.gz
Temp
22 21 21 20 20 19 19 19 19 19 19 19 19 19 19 19 20 20 21 21 20 19 19 19 19 18 20 21 22 22 22 23 19 20 20 20 20 20 21 20 20 21 20
22 22 21 21 20 20 19 19 19 19 19 19 18 18 19 19 20 20 19 18 18 19 19 20 20 21 20 20 20 21 22 22 22 19 20 19 19 19 20 20 19 19 20
22 22 22 22 21 20 20 19 19 19 19 18 18 18 18 18 18 18 18 18 18 18 18 19 19 20 20 19 19 20 20 21 22 21 20 19 18 18 18 18 18 18 18
23 23 23 23 22 21 20 19 19 18 18 18 18 17 18 18 18 17 17 16 16 16 17 17 18 18 18 18 18 18 19 19 20 21 17 18 18 17 18 18 17 17 17
24 23 23 22 22 21 20 19 19 19 18 18 17 17 17 17 17 17 17 16 16 16 16 16 16 17 16 17 17 17 17 18 18 20 18 17 17 17 17 18 18 17 16
24 23 22 22 22 21 20 19 19 18 17 17 16 16 16 16 15 16 16 15 15 15 15 14 15 15 15 15 15 16 17 18 18 18 17 15 14 15 16 17 17 16 16
24 23 22 22 22 21 19 19 18 17 17 16 15 16 15 15 15 15 15 14 14 14 13 13 13 13 13 13 14 15 15 16 16 17 14 13 13 14 15 16 16 16 15
23 22 22 22 21 19 18 16 16 16 15 15 14 14 15 15 15 15 14 14 14 13 13 13 14 14 14 15 15 15 15 14 14 15 14 14 14 14 15 14 14 14 13
20 21 21 21 18 18 16 15 14 14 14 13 12 13 14 14 14 15 14 14 14 13 13 14 14 14 14 15 15 13 12 12 12 13 13 13 13 14 14 14 13 14 13
15 16 18 18 17 15 14 14 12 13 12 12 11 12 12 13 14 14 14 14 13 12 12 13 13 13 13 13 13 12 12 11 12 12 12 12 11 11 11 12 11 10 10
12 13 14 14 13 13 12 12 12 12 11 10 10 10 11 12 13 13 12 12 11 10 10 10 11 12 12 12 12 11 10 11 11 11 11 11 10 10 10 10 9 9 10
10 10 11 11 11 11 12 10 10 10 9 8 8 8 8 9 10 11 11 11 11 11 9 9 9 11 11 11 11 10 10 11 11 11 10 10 10 10 10 10 10 10 10
9 8 9 9 9 9 9 9 8 8 8 7 7 7 7 7 8 9 9 10 10 9 8 8 8 9 10 10 10 10 10 10 10 10 10 10 10 10 10 10 10 10 10
9 8 8 8 8 7 7 7 7 7 7 7 6 6 6 7 7 8 8 8 9 9 9 9 9 10 10 10 10 10 10 10 10 10 10 10 10 10 10 10 10 10 10
8 7 7 7 7 7 7 8 8 8 8 7 7 7 7 7 7 8 8 8 8 9 9 9 9 9 9 9 9 10 10 10 10 10 10 9 10 9 9 9 9 9 10
8 8 8 7 7 7 7 7 8 8 8 8 8 8 7 7 8 8 8 9 9 10 10 10 10 10 10 10 10 9 9 9 9 9 9 9 9 9 9 9 9 9 9
10 10 9 9 8 8 8 8 7 8 8 8 8 8 8 8 8 9 9 10 11 11 10 10 10 10 9 9 9 8 8 8 8 9 9 9 9 8 8 9 9 8 8
13 12 11 10 10 10 10 10 10 10 9 8 8 8 9 9 10 10 11 11 10 11 10 10 9 9 8 8 8 8 8 8 8 8 8 8 8 8 8 8 8 8 8
14 13 12 12 11 12 11 11 10 10 10 9 9 9 9 10 10 10 11 11 11 10 10 9 9 9 8 8 7 8 8 8 8 7 7 7 7 7 8 8 8 8 8
15 15 15 15 14 13 12 12 12 11 10 10 10 10 10 10 10 10 10 10 10 10 9 9 9 8 8 7 7 7 8 8 7 7 7 7 7 7 7 7 7 7 8
16 15 16 15 15 15 15 14 14 12 11 10 10 10 10 10 10 10 10 10 9 9 9 9 8 8 8 7 7 7 7 7 7 7 6 6 6 6 6 7 7 7 8
16 16 16 15 15 14 14 13 13 13 11 11 11 10 11 11 11 10 10 9 9 9 8 8 8 8 8 8 7 7 7 6 6 6 6 5 5 6 6 6 6 7 7
17 16 16 15 14 14 13 13 13 13 12 12 12 12 12 11 11 10 10 9 9 8 8 8 8 8 7 7 7 7 6 5 5 5 5 5 5 5 5 6 6 6 7
17 16 16 15 14 14 13 13 13 13 13 13 12 12 11 11 11 10 9 9 9 9 8 8 8 7 7 7 6 6 6 5 5 5 4 4 4 5 5 5 5 6 6
16 16 16 15 15 14 14 14 13 13 13 13 13 12 12 11 10 10 9 9 9 9 8 8 7 7 6 6 6 6 5 5 4 4 4 4 4 4 4 5 5 5 5
16 16 16 15 15 15 15 15 14 14 13 13 13 12 12 11 11 10 10 9 9 8 8 8 7 7 7 6 6 6 5 5 4 4 3 4 4 5 4 5 5 5 5

GFSGL_925_temp_006.txt.gz
Temp
21 21 21 20 20 20 19 19 19 19 18 19 19 18 18 19 19 20 20 20 21 19 18 18 18 18 18 18 18 19 19 19 17 19 19 19 20 19 19 19 19 20 20
22 21 21 20 20 20 19 19 19 19 18 18 18 18 18 19 19 19 19 19 18 18 17 17 17 17 17 17 18 19 19 19 18 19 18 18 18 19 19 18 18 20 19
22 21 21 20 20 20 19 19 18 18 18 18 18 18 18 18 18 18 18 17 17 17 17 17 17 17 17 17 17 17 17 18 19 18 16 17 17 17 17 17 17 17 17
22 22 22 21 20 20 19 18 18 18 18 17 17 17 17 17 17 17 17 16 16 16 16 16 16 17 17 17 17 16 16 17 18 18 17 17 17 17 17 17 16 16 16
22 22 22 22 21 20 19 18 18 18 17 17 17 17 17 17 17 17 17 16 16 16 15 15 15 16 16 16 16 16 16 16 16 16 16 16 16 16 16 16 16 15 15
23 22 22 22 20 19 18 18 17 17 17 17 16 16 16 15 16 16 16 16 15 15 14 14 14 15 15 15 15 15 16 15 16 15 16 15 14 14 14 15 15 15 14
22 22 22 21 20 19 18 18 17 16 16 16 15 15 15 15 15 15 15 15 14 14 14 14 13 13 13 14 14 14 15 15 16 16 15 13 13 13 14 14 14 14 13
21 21 21 20 19 18 18 17 16 16 16 15 14 15 15 15 15 15 15 15 14 13 13 13 13 13 13 13 14 14 13 13 13 13 13 12 13 13 14 14 14 14 13
19 20 20 19 17 16 16 15 15 15 14 14 14 14 15 15 14 15 15 14 13 13 13 13 13 13 13 13 14 12 12 11 11 12 12 12 12 13 13 14 14 13 12
14 16 17 17 16 15 14 13 13 13 12 13 13 13 12 12 12 13 14 13 12 11 11 12 12 12 12 12 12 12 11 10 11 11 11 11 12 12 12 12 12 11 10
13 14 15 15 15 14 14 13 13 12 12 11 11 11 11 12 11 12 13 12 11 11 10 10 11 12 12 12 12 11 10 11 11 10 10 10 11 11 10 10 10 10 9
11 12 11 12 11 12 12 11 10 11 10 9 9 9 9 10 10 10 11 12 12 11 10 9 9 10 10 11 10 10 10 10 11 10 10 10 10 10 10 10 9 9 9
10 9 9 9 9 8 9 8 8 9 8 8 8 8 8 8 9 9 9 10 10 10 9 9 9 9 10 10 10 10 10 10 10 10 10 10 10 10 10 10 10 10 10
8 8 8 8 8 8 8 8 8 8 7 7 7 7 7 7 8 8 9 9 9 9 9 9 9 9 9 9 10 10 9 9 9 9 9 9 10 9 9 9 9 9 10
7 7 7 8 7 8 8 8 9 8 9 8 8 7 7 7 8 8 8 9 9 9 9 9 9 9 9 9 9 9 9 9 9 9 9 9 9 9 9 9 9 9 8
8 7 7 8 8 8 8 8 8 8 8 8 8 8 8 8 8 8 9 9 10 10 9 9 9 9 9 9 8 8 9 9 8 8 8 8 8 8 8 8 8 8 8
9 9 9 9 9 9 9 8 7 7 8 8 8 8 8 8 8 9 9 9 9 10 10 9 9 8 8 8 8 8 8 8 8 8 8 8 8 8 8 8 8 8 8
10 10 10 10 10 10 10 9 9 8 8 7 7 8 8 9 9 9 10 10 10 10 9 9 9 8 8 8 8 8 7 8 7 7 7 7 7 7 7 7 7 7 7
11 11 11 11 11 11 10 10 10 10 10 9 9 9 9 10 10 10 10 11 10 9 9 9 9 8 8 7 7 7 7 8 7 7 7 7 7 7 7 7 7 7 7
13 13 12 12 11 10 10 9 10 10 10 10 10 10 10 10 10 10 10 10 9 9 9 9 8 8 8 8 7 7 7 8 7 7 7 6 6 6 6 7 7 7 7
13 13 13 12 11 11 11 11 10 10 10 10 10 10 10 10 10 10 10 9 9 9 9 8 8 8 7 7 7 7 7 7 7 6 6 6 6 6 6 6 6 6 6
15 15 15 15 13 13 12 12 11 11 11 10 10 10 10 10 10 10 9 9 9 9 8 8 8 8 7 7 7 7 7 6 6 6 6 5 5 5 5 6 6 6 6
15 15 15 15 15 14 14 12 12 12 11 11 11 10 10 10 10 10 9 9 9 8 8 8 8 7 7 7 7 7 7 6 6 5 5 5 5 5 5 5 5 6 6
15 16 15 14 14 14 13 13 12 12 11 11 12 11 11 11 10 10 9 9 9 8 8 8 8 8 7 6 6 6 6 5 5 4 4 4 4 4 5 5 5 5 5
16 15 15 15 14 14 13 13 13 13 13 12 12 12 11 11 10 10 9 9 9 8 8 8 8 7 7 6 6 5 5 5 4 4 4 4 4 4 4 4 4 5 5
15 16 15 14 14 14 14 13 13 13 13 13 12 12 11 11 11 10 9 9 9 8 8 8 7 7 7 7 6 6 5 5 5 4 4 4 4 4 4 4 4 5 5

GFSGL_925_temp_009.txt.gz
Temp
21 21 20 20 19 19 19 19 18 18 18 18 18 18 18 18 18 18 19 19 18 18 18 18 18 18 17 17 18 18 18 18 17 18 18 17 18 17 18 19 19 19 20
21 21 20 20 19 19 19 18 18 18 18 18 18 18 18 18 19 18 19 18 18 17 17 17 17 17 17 17 17 17 18 18 18 17 17 17 17 17 18 18 18 18 18
21 21 20 19 19 19 19 18 18 18 17 17 18 18 17 18 18 17 17 17 17 17 17 17 17 16 16 16 16 17 17 17 17 17 16 16 16 16 17 17 17 17 16
21 21 21 20 19 19 18 18 17 17 17 17 17 17 17 17 17 17 17 16 16 16 16 16 16 16 16 16 16 16 16 16 16 16 16 16 16 16 16 15 15 15 15
22 22 22 21 19 19 18 18 17 17 16 16 16 16 16 16 16 17 16 16 16 15 15 15 15 15 15 15 15 15 15 16 16 16 16 16 15 15 15 14 14 14 14
21 21 21 21 20 18 18 17 17 16 16 16 16 16 16 15 16 16 16 15 15 14 14 14 14 14 14 14 14 14 15 15 15 15 15 15 14 15 15 14 13 13 13
21 21 20 20 19 18 18 17 17 16 16 16 15 15 15 14 15 15 15 15 14 13 13 13 13 13 13 13 13 14 14 14 14 14 14 12 12 12 12 12 12 12 11
19 20 20 19 18 17 17 16 16 15 15 15 15 14 14 15 15 15 15 14 13 13 13 12 13 12 12 13 13 13 12 12 12 12 11 11 11 11 12 12 12 11 10
16 18 19 19 17 16 16 15 15 15 14 14 14 14 14 14 13 14 14 13 13 12 12 12 13 12 13 13 13 12 11 11 11 12 12 12 12 12 13 13 12 12 10
14 16 17 17 17 16 15 14 13 14 13 13 13 12 12 12 12 13 13 13 13 12 12 12 12 12 12 12 12 12 11 10 10 11 11 11 11 11 12 12 11 11 10
12 14 15 15 15 14 14 14 13 12 12 12 12 11 11 11 11 12 12 13 12 11 11 10 10 11 11 11 11 11 11 11 11 11 11 11 11 10 10 10 10 10 9
11 12 11 11 11 11 12 11 11 11 11 10 10 9 10 10 11 11 11 12 11 11 10 10 9 9 10 10 10 10 10 10 10 10 10 10 10 10 10 9 10 9 9
10 10 9 9 9 9 9 8 9 9 9 8 9 8 8 9 9 9 10 10 10 9 9 9 9 9 9 10 10 10 10 10 10 10 9 9 9 9 9 9 9 9 9
9 9 9 9 9 9 9 8 8 9 8 8 8 7 7 8 8 8 9 9 9 9 9 9 9 9 9 9 9 9 9 9 9 9 9 9 9 9 9 9 9 9 9
8 8 8 8 8 8 8 7 8 8 9 8 7 7 7 7 7 8 9 9 9 9 9 9 9 9 9 8 9 8 8 9 9 8 9 8 8 8 8 8 8 8 8
8 8 7 8 7 8 7 7 7 8 8 8 8 8 8 8 8 9 9 9 9 9 9 9 9 8 8 8 8 8 8 8 8 8 8 8 8 8 8 8 8 8 7
9 9 9 9 9 9 9 8 7 7 8 8 8 8 8 8 8 9 9 9 9 9 9 8 8 8 8 8 7 7 7 7 7 7 7 7 7 7 7 7 7 7 7
10 11 11 10 10 10 10 9 9 8 7 7 7 8 8 8 9 10 10 9 9 9 9 9 8 8 7 7 7 7 7 7 7 7 7 7 7 7 7 7 7 6 6
12 11 11 10 10 10 10 9 9 9 9 8 8 8 8 9 9 10 10 10 9 9 8 8 8 8 7 7 7 7 7 7 7 7 7 6 6 6 6 6 6 6 6
12 12 11 11 10 10 10 9 9 9 9 9 9 9 9 9 10 10 10 10 9 9 9 8 8 8 8 7 7 7 7 7 7 6 6 6 6 6 6 6 6 6 6
12 12 11 11 11 10 10 10 10 10 10 9 10 10 10 10 10 10 10 9 9 9 8 8 8 8 8 7 7 7 7 7 6 6 6 5 5 5 5 5 6 6 6
13 12 11 12 11 11 11 10 10 10 10 10 10 10 10 10 10 10 10 9 9 8 8 8 8 8 8 7 7 7 7 6 6 6 6 5 5 5 5 5 6 5 5
13 13 13 13 13 13 12 11 11 10 10 10 10 10 10 10 10 10 10 9 9 8 8 8 8 8 7 7 7 7 7 6 6 6 5 5 4 4 4 5 5 5 5
14 14 14 13 13 13 13 12 12 12 11 11 11 11 11 11 10 10 10 9 9 8 8 8 8 7 7 7 6 6 6 6 5 5 4 4 4 4 4 4 4 5 5
15 15 15 14 14 13 13 12 12 12 12 12 11 11 11 11 10 10 10 9 9 8 8 8 8 7 7 7 6 6 5 5 4 4 4 4 4 4 4 4 4 4 4
15 15 15 15 14 13 13 12 12 12 12 12 12 12 11 11 11 10 10 9 9 9 8 8 8 7 7 7 7 6 6 5 5 4 4 3 3 4 4 4 4 4 4

GFSGL_925_temp_012.txt.gz
Temp
20 20 20 19 19 18 18 18 18 18 17 17 18 18 18 18 18 18 18 18 18 18 18 18 18 18 18 18 18 17 18 18 17 17 17 17 17 17 18 18 17 18 19
21 20 20 19 18 18 18 18 17 17 17 17 17 17 17 18 18 18 18 17 17 17 17 17 17 17 17 17 17 17 17 17 17 17 16 16 16 17 17 17 17 17 18
20 20 20 19 19 19 18 18 17 17 17 17 17 17 17 17 17 17 17 17 17 17 17 17 17 17 17 17 17 17 17 17 17 16 16 16 16 16 16 16 15 15 15
20 20 20 20 19 18 18 17 17 17 17 17 17 17 17 17 17 16 17 16 16 16 16 16 16 16 16 16 16 16 16 16 16 16 15 15 15 15 15 15 14 14 14
20 20 20 19 18 18 18 17 17 17 16 16 16 16 16 16 16 16 16 16 15 15 15 14 14 14 14 15 15 15 15 15 15 15 15 15 15 15 14 14 12 12 11
20 20 20 19 18 18 17 17 17 16 16 16 16 15 15 15 15 15 15 15 15 14 14 14 14 14 14 14 14 14 15 15 14 14 14 14 13 13 13 13 12 12 11
19 19 19 19 18 17 17 16 16 16 15 15 14 14 14 14 15 15 15 14 14 13 13 13 13 13 13 13 13 13 13 14 14 14 12 12 11 11 12 12 12 11 10
18 18 19 18 17 17 16 16 15 15 15 14 14 14 14 14 14 14 14 14 13 12 12 12 12 12 12 13 13 13 12 12 13 12 12 11 11 11 12 12 12 10 10
15 16 17 17 17 16 16 15 15 15 14 14 14 14 14 13 13 14 14 14 13 12 12 12 12 12 12 13 13 12 11 10 11 11 11 11 11 11 11 12 11 11 10
14 15 16 17 16 16 15 14 14 14 13 13 13 13 13 13 12 13 13 13 12 12 11 11 11 11 12 12 12 12 11 10 11 11 11 11 11 11 11 11 11 10 10
13 14 15 15 15 14 14 13 12 12 12 12 12 11 11 12 12 12 12 12 11 11 10 10 10 11 11 11 11 11 10 10 10 10 10 10 10 10 10 10 10 9 9
11 12 12 12 12 12 12 11 10 11 11 10 10 10 10 10 10 11 11 12 11 11 9 9 9 10 10 10 10 10 10 10 10 10 10 9 9 9 9 9 9 9 9
10 10 10 11 10 10 10 9 9 9 9 8 8 8 8 9 9 10 10 10 10 10 9 9 9 9 9 9 10 10 10 10 10 9 9 8 8 9 9 9 9 9 9
9 9 9 9 9 9 9 10 10 9 8 8 8 7 8 8 8 9 9 9 9 9 9 9 9 9 9 9 9 9 9 9 9 9 8 8 8 8 9 9 9 9 8
8 8 8 8 8 8 8 8 8 8 8 8 8 8 8 8 8 8 9 9 9 9 9 9 9 9 9 8 8 8 8 8 8 8 8 8 8 8 8 8 8 8 7
8 8 8 8 7 8 7 7 7 8 8 8 8 9 8 8 8 8 9 9 9 9 9 9 8 8 8 8 8 7 8 8 8 8 8 7 7 7 7 7 7 7 6
10 9 9 9 8 8 8 8 7 7 7 7 8 8 8 8 8 9 9 9 9 9 9 8 8 7 7 7 7 7 7 7 7 7 7 7 7 7 7 7 6 6 6
10 10 10 9 9 9 9 8 8 8 7 7 7 8 8 9 9 9 9 9 9 9 8 8 8 7 7 7 6 7 7 7 7 7 7 6 6 6 6 6 6 5 5
11 10 10 10 10 9 9 9 9 8 8 7 7 8 8 9 9 9 9 10 9 9 8 8 8 7 7 7 6 7 7 7 7 6 6 6 6 6 6 6 6 6 6
11 11 11 11 10 10 10 9 9 8 8 8 8 8 9 9 9 9 9 9 9 9 8 8 8 7 7 7 7 7 7 7 6 6 6 6 5 5 5 5 6 5 5
12 11 11 11 11 11 10 10 9 9 8 8 9 9 9 9 10 10 10 10 9 9 8 8 8 8 7 7 7 7 7 6 6 6 6 5 5 5 5 5 5 5 5
12 12 12 11 11 10 10 10 10 9 9 9 9 9 9 9 10 10 10 9 9 9 8 8 8 8 8 7 7 7 7 6 6 6 5 5 5 4 4 5 5 5 5
12 12 12 12 12 11 10 10 10 10 10 10 10 10 10 10 10 10 10 10 9 9 8 8 8 8 8 8 7 7 6 6 6 5 5 5 4 4 4 4 4 4 5
13 13 13 13 13 13 12 12 11 11 11 11 11 10 10 10 10 10 10 10 9 9 8 8 8 8 8 7 7 6 6 6 5 5 5 4 4 4 4 4 4 4 4
13 13 13 14 14 13 13 12 12 12 12 12 12 11 11 11 11 11 11 10 9 9 8 8 8 8 8 7 7 6 6 5 5 4 4 4 4 4 4 4 4 4 4
14 14 14 14 14 12 12 12 12 12 12 12 12 12 12 12 12 11 11 10 10 9 9 9 8 8 8 7 7 7 6 6 5 5 4 4 3 3 3 4 4 4 4

GFSGL_925_temp_015.txt.gz
Temp
20 20 19 19 18 18 18 17 17 17 17 18 18 17 17 18 18 18 18 18 17 17 17 18 18 18 18 18 18 18 18 18 19 17 17 17 17 17 17 17 17 17 18
20 19 19 19 18 18 18 17 17 17 17 17 17 17 17 17 17 17 18 17 17 17 17 17 17 17 18 18 17 17 17 17 17 17 16 16 16 15 15 16 16 16 16
20 20 19 19 19 18 17 17 17 17 16 16 16 16 16 16 17 17 17 17 17 17 17 17 17 17 17 17 17 17 17 17 17 16 16 16 15 14 14 14 15 15 16
20 20 20 19 19 18 17 17 16 16 16 16 16 16 16 16 16 15 16 16 16 16 16 16 16 16 16 16 16 16 16 16 16 16 15 15 15 14 14 14 13 13 13
20 20 20 19 18 17 17 16 16 16 15 16 16 15 15 15 15 15 15 14 15 15 15 15 14 15 15 15 15 15 15 15 15 15 15 15 15 14 14 13 11 11 10
20 21 20 19 18 17 16 16 15 15 15 15 15 15 14 14 15 15 15 14 14 14 13 13 14 14 14 14 14 15 15 15 14 14 14 13 11 12 12 13 11 11 11
19 20 19 19 18 17 16 15 15 14 14 14 14 14 13 13 15 15 15 13 13 12 12 12 13 13 13 13 13 14 13 13 14 14 12 11 11 12 12 12 11 11 10
17 18 19 18 18 16 15 15 14 14 14 14 14 14 14 13 14 14 14 13 12 12 12 12 12 12 11 12 12 11 11 10 11 11 10 11 11 11 12 11 11 10 9
15 15 17 17 17 15 15 14 13 13 13 13 14 14 14 13 13 14 13 12 12 12 11 12 12 11 12 11 12 11 11 11 11 11 11 11 11 11 11 12 11 13 13
13 14 16 17 17 15 14 13 12 13 13 13 12 12 13 13 13 14 13 13 12 12 11 11 12 12 12 12 12 12 12 11 11 11 11 10 10 10 11 10 12 12 13
12 13 15 15 15 14 13 12 11 11 11 11 11 10 11 12 12 12 13 11 11 11 11 10 10 11 11 12 11 10 10 10 10 10 11 11 10 10 10 9 9 11 11
12 12 12 12 13 12 12 11 11 10 10 9 9 10 10 11 11 11 12 12 11 11 9 10 10 10 10 10 10 10 10 11 11 11 11 11 11 10 10 9 8 9 9
11 10 10 10 11 11 10 9 9 9 8 8 9 8 8 9 10 11 11 11 11 10 9 9 9 10 10 10 10 10 10 11 11 11 11 10 9 9 9 9 9 8 8
9 9 9 9 9 9 9 9 10 10 9 9 8 7 7 8 9 9 9 9 9 9 9 9 9 9 9 9 10 10 10 10 10 10 10 9 9 9 9 9 10 10 10
8 8 8 8 8 8 8 8 8 9 9 9 8 8 8 7 8 9 9 9 9 9 9 10 10 10 10 10 9 9 9 9 9 9 9 9 9 9 9 9 9 10 10
9 9 8 7 8 7 7 7 8 8 8 8 8 9 8 8 8 9 9 9 9 9 10 10 10 10 9 9 9 9 9 9 9 9 9 9 9 9 9 9 9 9 10
10 10 9 9 8 7 8 8 6 7 8 8 8 8 8 8 9 9 9 9 9 9 10 10 9 9 9 9 9 9 9 8 7 8 8 8 8 8 9 9 9 9 9
9 9 11 11 11 10 10 10 10 10 10 8 7 7 8 8 9 9 9 9 9 9 10 9 9 8 8 8 8 9 8 8 8 8 8 8 8 8 8 8 8 9 9
11 11 10 10 10 10 10 10 10 10 10 9 8 8 8 9 9 9 9 11 11 10 10 9 9 8 8 8 7 7 8 8 8 8 8 8 7 8 8 8 8 7 7
10 11 11 11 11 11 11 11 11 10 10 10 10 10 9 9 10 10 10 10 10 10 9 9 8 8 8 7 8 8 8 7 7 8 7 7 7 7 7 7 8 8 8
12 11 12 12 12 12 12 12 11 11 11 10 10 10 9 10 11 11 11 10 10 10 9 9 9 8 8 7 8 8 8 8 7 7 7 7 7 7 7 7 7 8 8
12 12 12 13 12 12 12 11 11 11 11 11 11 10 9 9 11 11 10 10 10 9 9 8 9 9 9 8 8 8 8 8 7 7 7 7 6 7 6 7 7 7 8
13 13 13 13 12 12 11 12 11 11 11 11 11 11 10 10 10 10 11 10 9 9 8 8 8 9 8 8 8 8 8 8 7 7 7 6 6 6 6 7 7 7 8
13 14 14 14 13 13 13 13 12 11 12 12 12 11 11 11 11 11 10 10 9 9 8 8 8 9 8 8 7 7 7 7 6 6 6 6 6 6 6 6 7 7 7
13 13 14 15 15 15 14 13 13 13 12 12 12 12 12 12 11 11 11 10 10 9 9 8 8 8 8 8 8 7 7 6 5 5 5 5 5 5 6 6 6 7 6
14 14 13 14 14 14 13 12 12 12 12 12 12 12 12 12 12 12 11 10 10 10 10 9 9 8 8 8 8 7 7 6 6 5 5 5 5 5 5 6 6 6 6

GFSGL_925_temp_021.txt.gz
Temp
25 24 23 24 24 22 23 21 20 19 19 19 19 18 19 19 19 20 19 20 19 19 19 19 20 20 20 21 21 20 20 19 20 20 19 18 17 16 16 15 15 15 16
25 24 24 24 24 22 22 21 20 19 19 19 18 18 19 18 18 18 18 18 18 18 18 18 19 19 20 19 19 19 19 19 19 20 18 16 16 15 14 15 14 14 15
25 25 24 25 24 21 21 20 20 20 19 19 19 18 18 18 18 17 17 16 16 16 16 17 17 17 17 17 17 17 17 17 17 17 17 16 14 14 14 13 13 13 13
26 26 25 25 24 21 21 21 20 20 19 19 19 19 19 18 18 17 17 16 15 15 15 15 15 15 15 16 16 16 16 16 16 16 15 15 14 13 13 13 12 12 11
26 26 25 25 24 22 21 21 20 19 19 18 18 19 19 18 17 17 17 16 15 14 14 15 15 15 15 15 15 15 15 16 16 16 15 14 14 13 13 12 11 11 10
26 26 26 24 23 21 21 20 19 18 18 18 18 18 18 17 16 16 17 16 16 16 15 15 14 14 15 15 15 15 15 15 15 14 13 13 13 13 13 12 11 11 10
24 25 25 24 23 21 21 20 18 17 17 18 17 18 17 15 15 16 16 17 16 16 16 16 16 15 15 15 15 15 14 15 14 14 13 13 13 12 13 12 12 12 11
23 22 23 21 22 21 21 20 17 17 17 17 17 17 16 15 15 16 17 17 17 17 16 16 16 15 15 16 15 14 13 13 14 14 13 13 12 13 13 13 12 11 11
22 20 19 19 19 19 20 18 17 17 16 17 17 16 16 14 15 16 17 17 17 16 14 15 15 14 15 15 15 14 14 13 13 13 13 13 13 13 13 14 16 16 16
18 17 16 15 17 18 18 18 17 16 16 17 16 15 15 15 15 16 17 18 17 16 15 13 13 14 14 15 16 16 15 15 15 13 13 13 13 14 14 14 16 17 16
15 14 14 15 16 17 17 17 17 16 16 16 14 13 13 13 14 15 16 17 17 17 16 13 12 13 13 14 14 15 14 13 14 15 16 16 16 15 14 13 13 15 15
13 13 12 13 14 14 15 15 15 15 15 14 14 14 11 10 13 13 14 14 15 15 14 12 11 12 12 12 12 13 13 13 16 17 17 16 16 15 13 12 11 11 11
12 12 10 11 11 11 12 12 13 13 12 11 11 10 9 10 10 11 12 12 12 13 12 12 12 12 13 12 13 13 14 15 16 17 16 15 14 13 12 12 12 11 12
12 10 9 9 9 9 10 10 10 11 10 10 9 9 9 9 9 10 10 11 11 11 11 11 11 12 13 13 13 14 15 15 15 15 15 15 14 14 14 14 14 14 15
13 12 11 9 9 9 9 9 9 9 9 9 9 9 10 9 9 9 10 11 11 11 12 12 13 15 15 15 15 14 14 14 15 14 14 14 14 14 14 13 14 14 15
14 14 12 11 10 10 8 7 8 8 9 9 9 9 9 9 10 10 10 11 11 11 12 14 16 16 16 16 15 15 14 13 14 14 14 14 14 14 14 13 13 14 14
14 14 13 14 14 13 12 11 9 8 8 9 9 9 9 10 10 10 10 11 11 11 13 16 16 15 15 15 15 15 14 13 11 13 13 13 13 13 12 13 13 13 14
16 16 18 18 18 18 18 17 16 15 14 10 8 8 9 9 10 10 10 10 12 13 13 16 15 14 14 14 14 14 13 12 12 12 12 12 12 13 13 13 13 13 13
18 18 18 18 18 18 18 18 18 17 17 14 11 9 9 10 10 10 10 11 14 16 16 15 14 14 13 13 13 12 12 12 12 12 12 12 12 12 13 13 13 11 11
17 17 17 18 18 18 18 18 17 17 16 16 16 15 12 10 11 12 12 13 15 15 15 15 14 13 13 12 12 11 11 11 11 11 12 12 12 12 12 13 13 13 13
17 17 18 19 19 19 18 18 18 18 17 17 16 15 13 14 16 16 15 15 15 15 15 14 14 14 13 12 11 11 11 12 12 12 12 12 12 12 12 12 12 12 13
18 18 19 19 18 18 18 18 18 18 18 18 17 14 13 13 15 16 16 15 15 15 14 13 13 13 14 13 12 12 11 12 12 12 12 12 12 12 12 12 12 12 13
19 19 19 19 18 18 18 19 19 19 18 18 18 17 15 14 15 16 16 16 15 14 14 13 12 13 13 13 12 12 12 12 12 12 12 12 12 12 12 12 12 12 13
19 19 19 19 17 19 19 19 19 18 18 18 18 18 18 17 17 16 15 15 15 14 14 13 13 13 13 12 12 12 12 11 11 11 11 11 11 12 11 11 11 12 12
18 18 18 17 17 17 17 18 17 18 18 17 17 17 17 17 17 16 16 16 15 15 14 14 13 13 12 12 12 12 11 11 11 10 9 10 10 10 11 11 11 12 12
18 17 18 18 17 17 17 17 17 17 17 17 18 17 16 16 16 16 16 15 15 14 14 14 14 13 13 13 12 12 11 11 10 10 9 9 10 10 10 10 10 11 11

GFSGL_925_temp_024.txt.gz
Temp
25 24 23 24 23 23 22 21 20 20 20 20 19 19 19 19 19 19 20 19 19 19 20 20 20 20 20 21 21 21 21 21 20 20 19 17 16 16 15 15 15 15 15
25 24 24 24 22 23 21 21 20 20 20 19 19 19 19 19 19 18 18 18 17 17 18 18 19 19 18 19 19 19 19 19 19 20 17 15 15 14 14 15 14 13 13
25 24 24 24 23 22 21 21 20 20 20 20 19 19 19 18 18 17 17 16 16 16 16 16 16 17 17 17 17 18 18 18 17 18 16 15 13 13 13 12 13 12 12
26 25 25 24 23 22 21 20 20 20 20 19 19 19 19 17 17 17 16 16 15 15 15 15 15 15 16 16 16 17 17 17 16 16 15 14 13 13 13 12 11 11 11
26 26 25 25 23 22 21 20 19 19 19 19 19 19 18 17 17 17 16 16 15 15 14 15 15 15 15 15 16 16 16 16 15 15 14 14 13 13 13 12 11 10 10
26 26 25 24 23 22 21 20 19 18 18 19 19 18 17 16 16 17 16 16 16 16 16 16 15 15 15 15 15 15 16 16 15 14 14 13 13 13 13 12 11 11 11
25 24 24 23 23 22 21 20 19 18 18 18 18 17 16 16 16 17 17 16 16 16 16 16 16 15 15 15 14 14 14 14 15 15 13 13 13 13 13 12 12 12 11
23 21 21 20 21 21 20 20 18 17 17 17 17 16 15 16 16 17 17 17 16 16 16 16 15 15 15 15 14 14 14 14 14 13 13 13 13 13 13 13 13 12 11
21 20 19 18 18 20 19 19 18 17 17 17 17 17 15 15 16 16 17 17 16 15 15 15 14 15 15 15 14 14 14 14 13 14 14 14 13 14 14 14 13 13 14
18 15 15 15 17 18 19 18 17 17 17 16 16 16 15 15 16 16 17 17 16 15 14 14 14 14 15 16 15 15 15 15 14 14 14 14 14 14 14 14 14 15 15
15 14 14 15 16 17 17 17 17 17 16 15 14 13 14 14 15 16 16 16 17 17 15 13 13 13 14 15 15 15 14 14 14 15 15 15 15 14 13 12 13 13 14
13 12 12 13 14 15 16 16 16 15 15 15 14 12 12 12 14 14 15 15 16 15 13 12 13 13 13 13 14 14 14 15 15 16 16 15 15 14 13 13 13 12 13
12 11 11 11 12 13 13 14 14 14 13 12 12 11 10 10 12 12 13 13 13 13 13 13 13 13 13 13 14 14 15 15 16 16 16 15 14 14 13 12 12 12 12
11 11 10 10 10 11 11 11 11 11 11 11 10 10 9 10 10 11 11 12 12 13 12 13 13 13 13 14 14 14 14 15 15 15 15 15 15 14 14 14 14 13 12
13 12 11 10 9 9 10 10 10 10 10 10 10 10 10 10 10 11 11 11 11 11 12 12 13 13 13 15 15 15 14 14 15 14 14 14 14 14 14 13 14 14 14
15 14 14 13 12 11 9 8 9 9 9 9 10 10 10 10 10 10 11 11 11 12 12 12 13 15 16 16 15 15 14 14 14 14 14 13 13 13 13 13 13 14 14
15 15 14 15 14 13 12 11 9 9 9 9 9 9 9 10 10 10 11 11 12 12 12 13 16 16 15 15 15 15 14 13 13 13 13 13 13 13 13 13 13 13 14
16 17 18 18 18 17 15 15 13 13 12 10 9 9 9 10 10 10 11 11 12 13 14 14 15 15 14 14 14 14 14 13 12 12 12 12 12 12 13 13 13 13 13
18 19 19 19 19 19 19 19 18 18 15 12 10 10 10 10 10 11 11 11 12 14 16 16 15 14 14 13 13 12 12 12 12 11 11 12 12 12 12 13 13 13 12
18 18 18 18 19 19 19 19 18 17 17 16 15 13 11 11 11 12 12 13 14 15 16 15 15 14 13 13 12 12 11 11 11 11 11 11 12 12 12 12 13 13 12
18 18 18 20 20 19 19 18 18 18 18 17 16 15 14 14 15 15 15 15 15 16 15 15 15 14 13 13 12 11 11 12 12 12 12 12 12 12 12 12 12 12 13
19 19 20 20 19 19 19 19 19 19 19 18 17 16 15 14 15 15 16 16 16 16 15 14 14 14 14 13 13 12 12 12 12 12 12 12 12 12 12 12 12 12 12
20 20 20 19 19 18 18 19 19 19 19 19 19 16 15 15 15 16 16 16 16 16 15 14 14 13 13 13 13 13 12 12 12 12 12 12 12 12 12 12 12 12 12
20 20 19 18 18 18 19 19 18 18 18 18 18 17 17 17 17 17 17 16 16 15 15 14 14 13 13 13 12 12 12 12 12 12 12 11 11 11 11 11 11 11 11
18 18 18 18 18 18 18 18 17 17 18 17 17 17 16 16 16 16 16 16 15 15 15 15 14 14 13 13 13 12 12 12 12 11 11 11 10 10 10 11 11 11 11
18 17 17 17 17 17 17 17 17 17 17 17 17 17 17 17 17 17 16 15 14 14 13 13 13 13 11 12 12 11 12 12 12 11 11 10 10 9 10 10 10 11 11

GFSGL_925_temp_027.txt.gz
Temp
24 23 23 23 22 22 21 20 20 20 20 19 20 19 19 18 18 19 18 18 19 19 20 19 19 20 20 20 21 21 21 21 19 17 16 15 14 15 14 14 15 15 14
24 24 23 23 22 22 21 20 20 20 19 19 19 19 18 18 17 17 16 16 16 17 18 19 18 18 19 19 19 19 19 19 19 17 15 14 13 14 14 13 13 13 13
25 24 23 23 22 22 21 20 20 20 19 19 19 18 18 18 17 16 16 15 16 16 16 16 16 17 17 17 17 17 17 18 18 17 15 14 12 12 12 12 12 12 12
24 24 24 23 22 21 21 20 20 20 19 19 18 18 17 18 17 16 16 15 15 15 15 16 16 15 16 16 16 16 16 16 16 15 14 13 13 13 12 11 11 11 10
25 25 24 23 22 21 20 20 20 19 19 19 18 17 17 17 17 17 16 16 16 15 15 15 15 15 15 16 16 16 16 16 15 14 14 14 13 13 13 12 10 10 10
26 25 24 23 22 21 20 20 19 18 19 18 18 17 16 16 17 17 17 16 16 16 15 15 15 15 14 15 15 15 15 16 15 14 13 13 13 13 12 12 11 11 10
24 23 22 22 22 21 20 20 19 18 18 17 17 17 16 16 16 17 17 16 16 16 16 15 15 14 15 15 14 15 15 15 15 15 13 13 13 13 13 12 12 12 11
21 20 20 20 21 20 20 19 18 18 18 17 16 16 16 16 16 17 16 16 16 16 15 15 15 14 14 15 15 15 14 14 14 14 13 13 13 13 13 13 12 12 11
18 18 18 19 19 19 19 18 18 17 17 17 17 16 16 16 16 16 16 16 15 15 15 15 15 14 14 15 15 14 14 14 14 14 14 14 14 14 14 13 13 12 12
16 16 16 16 17 19 19 18 17 17 17 16 16 15 15 15 15 16 16 16 15 15 15 15 15 14 14 15 14 14 14 14 14 14 14 14 14 14 13 14 14 13 12
15 15 15 16 16 17 18 17 17 17 16 16 15 14 14 14 15 15 16 16 15 14 14 14 14 14 14 15 15 15 14 14 14 14 14 13 14 14 13 13 13 14 13
13 13 13 14 15 16 16 16 16 15 15 14 13 13 13 13 14 14 15 15 15 15 14 14 13 13 14 14 14 14 14 14 15 14 14 13 13 14 13 13 13 13 13
12 12 12 13 13 14 15 15 14 14 14 12 12 12 11 11 12 13 13 14 14 14 14 13 13 14 14 14 14 14 14 15 15 15 14 14 14 14 13 13 12 12 12
11 11 11 12 11 12 12 13 13 12 12 12 11 11 10 11 11 11 12 12 13 13 13 13 13 14 14 14 14 14 14 14 14 14 14 14 14 14 13 13 12 12 12
11 11 11 11 11 11 11 10 11 11 11 11 10 10 10 10 11 11 11 11 12 12 13 13 13 13 14 14 14 14 14 14 14 14 14 14 13 13 13 13 13 13 11
12 12 11 11 10 10 10 9 10 10 10 10 10 10 10 10 10 10 11 11 11 12 13 13 13 13 13 14 14 14 14 14 13 13 13 13 13 13 13 13 13 13 13
14 13 13 12 12 11 11 11 10 10 10 10 10 10 10 10 10 10 11 11 12 12 13 13 13 14 14 14 14 13 13 13 13 13 13 12 12 12 12 13 13 13 13
15 14 14 14 14 13 12 12 11 12 11 10 10 11 11 11 11 11 11 12 13 13 13 13 14 14 14 14 13 13 12 12 12 12 12 12 12 12 12 12 12 13 12
16 16 17 17 16 16 14 13 13 12 13 13 11 11 11 11 11 12 12 13 13 13 13 14 14 14 14 13 13 13 12 12 11 11 11 11 12 11 12 12 12 12 12
18 18 19 19 19 18 18 18 16 15 14 13 13 13 13 12 13 13 13 13 14 15 14 15 15 14 13 13 13 13 12 11 11 11 11 11 11 11 12 12 12 12 12
18 18 18 18 19 19 18 18 18 17 16 15 15 15 15 15 14 14 14 14 15 15 15 15 14 14 13 13 13 12 12 11 11 11 11 11 12 12 12 12 12 12 12
18 18 19 19 19 18 18 18 18 18 18 17 16 16 15 14 14 15 15 15 15 15 15 15 14 14 13 13 12 12 12 12 11 12 12 12 12 12 12 12 12 12 12
19 19 19 19 18 18 18 18 18 18 18 17 17 16 15 15 16 16 16 16 16 16 15 15 14 14 14 13 13 13 12 12 12 12 12 12 12 11 11 11 11 11 11
18 18 18 18 18 18 18 17 17 17 18 17 16 16 16 16 16 16 16 16 16 16 15 15 14 14 13 13 13 13 12 12 12 12 12 12 11 11 11 11 11 11 11
17 17 17 17 16 16 16 16 17 17 17 17 17 17 16 15 14 14 15 14 14 14 12 12 12 12 11 11 11 11 12 12 11 12 12 11 11 11 11 10 10 10 10
16 16 15 15 14 14 14 15 15 15 16 16 14 12 12 11 10 11 11 10 10 10 10 10 9 9 9 9 9 9 10 11 11 10 10 10 11 11 11 10 10 9 10

GFSGL_925_temp_030.txt.gz
Temp
23 23 22 22 21 21 20 20 19 19 19 19 19 18 18 17 18 18 18 18 18 18 18 18 18 19 19 20 20 21 20 20 16 15 15 15 15 15 14 14 14 15 14
23 23 22 22 21 21 20 20 20 19 19 19 18 18 17 17 16 16 16 16 17 17 17 17 17 18 18 18 19 19 19 19 17 15 14 13 13 13 13 13 13 13 13
23 23 22 22 22 21 20 20 20 19 19 18 18 18 17 17 16 16 15 16 16 16 16 16 16 16 17 17 17 17 18 18 17 15 14 13 12 12 12 12 11 11 11
23 23 22 22 22 21 20 20 20 19 18 18 17 17 17 16 16 16 16 15 15 15 15 15 15 15 16 16 16 16 16 16 16 15 13 13 12 12 12 11 11 11 11
24 23 23 22 21 20 20 20 19 19 18 17 17 17 17 17 16 16 16 16 15 15 15 15 15 15 15 16 16 16 16 15 15 14 13 13 13 12 12 11 10 10 10
24 24 23 21 20 20 19 19 19 18 18 17 17 17 16 16 17 16 16 16 15 15 15 14 14 15 15 15 15 16 15 15 14 14 13 13 13 13 12 11 10 10 10
23 23 22 21 20 19 19 19 19 18 18 17 17 16 16 16 16 16 16 16 15 15 15 15 15 15 14 15 15 15 15 15 15 16 14 13 13 13 12 11 11 12 11
21 20 20 20 20 19 19 19 18 18 17 17 16 16 16 16 16 16 16 16 15 15 15 15 15 15 15 15 15 15 14 14 13 13 13 13 13 13 13 12 12 12 11
18 18 18 18 19 18 19 19 18 17 17 17 16 16 16 15 15 16 16 16 15 15 14 14 14 15 14 14 15 14 14 13 13 13 13 13 14 14 13 14 12 12 10
16 16 17 17 17 18 19 18 17 17 17 16 15 15 15 15 15 16 16 16 15 15 14 14 14 14 14 14 14 14 14 13 13 13 13 13 14 13 13 13 13 12 12
15 16 16 16 17 18 18 17 16 16 16 15 15 14 14 14 15 15 15 16 16 15 14 14 14 14 14 14 14 14 14 14 13 13 13 13 13 13 13 13 13 13 12
13 14 15 16 16 17 17 16 16 16 15 14 13 13 13 13 14 14 15 15 15 15 14 14 13 13 13 13 14 14 14 15 15 14 14 13 13 13 13 12 12 13 13
13 13 14 14 15 15 16 16 15 15 14 12 13 12 11 11 12 13 13 14 14 14 13 13 13 14 14 14 14 14 14 14 14 14 13 13 13 13 13 12 12 12 12
12 12 13 14 13 14 14 14 13 13 12 12 11 11 11 11 11 12 12 12 13 13 13 13 13 14 14 14 14 14 14 14 14 14 13 13 13 13 13 13 13 12 12
12 12 12 13 12 12 12 12 12 12 12 12 11 11 11 11 11 11 12 12 12 12 13 13 13 13 14 14 14 14 13 14 14 13 13 13 13 13 13 13 12 12 11
11 11 11 12 11 11 11 10 10 11 11 11 11 11 11 11 10 11 11 11 12 12 13 13 13 13 13 14 14 14 13 13 13 13 13 13 12 12 12 12 12 12 12
13 12 12 12 11 11 11 12 11 10 10 11 11 11 11 11 11 11 11 11 12 12 13 13 13 14 13 13 13 13 13 12 12 12 12 12 12 12 12 12 12 12 12
14 13 13 13 13 13 13 13 12 12 11 11 11 11 11 11 11 11 11 12 12 13 13 13 13 13 13 14 13 13 12 12 12 12 11 12 12 11 11 11 12 12 12
14 14 14 14 13 14 13 13 13 12 13 13 12 12 11 11 11 12 12 13 13 14 13 14 14 14 13 14 13 13 12 12 11 11 11 11 11 11 11 11 11 12 11
15 16 16 15 14 13 13 13 13 13 13 14 13 13 13 12 13 13 13 13 14 14 14 15 14 14 13 13 13 13 12 12 11 11 11 11 11 11 11 11 11 11 11
17 16 17 17 17 17 16 16 15 15 14 14 15 15 15 14 14 14 14 14 15 14 14 14 14 14 13 13 13 12 12 12 12 11 11 11 11 11 11 11 11 11 11
18 18 18 18 18 17 17 17 16 15 15 15 16 15 14 14 14 14 14 15 15 15 15 14 14 14 14 13 13 12 12 12 12 11 11 11 11 12 11 11 11 11 11
18 18 18 18 18 17 17 17 17 17 16 16 16 15 15 15 15 14 14 15 15 15 15 14 14 13 12 12 12 12 12 12 12 12 12 12 11 11 11 11 11 11 11
18 18 18 17 17 17 17 17 16 16 16 17 17 15 15 13 13 13 14 14 14 14 14 13 12 12 12 11 11 11 11 11 11 11 11 11 10 11 11 11 11 10 10
17 17 16 16 16 16 16 15 15 15 15 15 13 13 11 12 12 12 12 12 11 11 10 10 9 9 9 9 9 9 10 10 10 10 10 10 11 11 9 9 10 10 10
17 16 15 15 14 14 15 14 13 14 13 11 10 10 10 9 9 9 9 9 9 8 8 7 7 6 6 6 6 6 7 8 8 8 8 8 8 8 9 9 10 9 9

GFSGL_925_temp_036.txt.gz
Temp
21 21 21 21 20 19 19 19 18 18 18 17 17 17 16 17 17 17 17 17 17 17 17 17 17 17 18 18 18 19 19 19 16 15 15 14 14 14 14 14 14 14 13
23 21 21 21 20 19 19 19 18 18 17 17 17 16 16 16 16 16 16 16 16 16 16 16 16 17 17 17 17 17 17 17 17 15 14 13 13 13 13 13 12 12 12
21 21 21 21 20 19 19 18 18 18 17 17 17 16 16 16 16 16 16 16 15 14 15 15 16 16 16 16 17 17 17 17 16 15 14 13 12 12 12 12 12 12 11
21 21 21 20 20 19 19 18 18 18 17 17 16 16 16 16 15 16 16 15 15 15 15 15 15 15 16 16 16 15 15 16 15 15 13 12 12 12 12 11 11 11 11
22 22 21 20 19 19 19 18 18 18 17 17 16 16 16 15 15 15 16 15 15 15 15 15 14 15 15 15 16 15 16 15 14 14 13 12 12 11 12 11 10 10 10
22 22 21 20 19 20 19 18 17 17 17 17 16 16 16 16 15 15 15 15 15 15 15 14 15 14 15 15 15 15 15 15 15 14 13 13 12 12 12 11 11 11 10
21 21 21 20 19 19 19 18 17 17 17 16 16 16 16 16 16 16 15 15 15 15 15 15 15 15 15 14 14 15 15 15 15 14 13 13 13 13 12 11 11 11 11
20 21 20 20 19 19 18 17 17 17 17 16 15 15 16 15 15 15 15 15 15 14 14 15 15 15 14 15 15 14 13 13 13 14 14 13 13 13 12 12 12 11 10
18 20 19 18 18 18 18 17 17 16 16 16 15 15 15 15 15 15 15 15 14 14 14 14 14 14 14 14 15 14 13 13 13 14 14 14 14 13 12 12 12 11 11
16 18 18 18 18 17 18 17 17 16 16 15 15 14 15 15 15 15 15 15 15 14 14 13 13 14 13 13 14 14 14 13 13 14 14 14 14 13 12 12 12 11 11
16 16 16 16 16 17 17 17 17 16 15 14 14 14 14 15 15 15 14 14 14 14 13 13 13 13 13 13 13 13 13 13 13 13 13 13 13 13 12 12 12 11 10
15 15 15 16 16 16 16 16 16 15 14 14 13 13 13 13 14 14 14 13 14 14 13 13 13 13 13 14 14 14 14 14 13 13 13 13 13 12 12 12 12 12 12
14 14 14 15 16 16 17 16 15 14 14 13 13 13 12 12 12 13 13 12 13 13 13 13 13 13 13 14 14 14 14 14 13 13 12 12 13 12 12 12 12 11 12
13 13 13 14 15 15 15 15 15 14 13 12 12 12 11 11 11 11 12 12 12 13 13 13 13 13 14 14 14 14 14 13 13 13 13 13 12 12 12 12 12 12 12
12 12 13 13 13 14 14 13 13 13 13 13 12 12 11 11 11 11 11 12 12 12 13 13 13 14 13 13 13 13 13 13 13 12 12 12 12 12 12 11 11 11 11
12 12 12 12 12 12 13 12 12 12 12 12 12 12 11 11 11 11 11 11 12 12 13 13 13 14 14 14 13 13 12 12 12 12 11 11 11 11 11 11 11 11 10
12 12 11 11 11 12 11 11 10 10 11 11 11 11 11 11 10 11 11 11 12 12 13 13 13 13 13 13 13 12 12 12 12 11 11 10 10 10 10 10 10 10 10
11 11 11 11 11 11 11 11 11 11 10 10 10 10 10 10 10 10 11 11 12 12 13 13 13 13 13 13 13 12 12 12 11 11 11 10 10 10 10 10 10 10 9
12 12 12 12 12 12 12 12 12 12 11 11 10 10 10 10 11 11 11 12 12 12 13 13 13 13 13 13 13 12 12 11 11 11 11 10 10 10 10 10 10 10 10
13 13 13 13 13 13 13 13 13 13 13 12 12 12 11 11 11 12 12 13 13 13 13 13 14 14 13 13 12 12 11 11 11 11 11 11 10 10 10 10 10 10 10
14 13 13 13 13 13 14 14 14 14 14 14 14 13 13 13 13 12 12 12 12 13 13 13 13 13 13 13 12 12 12 11 11 11 11 11 11 10 10 10 10 10 10
14 14 14 14 14 14 14 14 14 13 13 13 14 14 14 13 13 13 13 13 13 13 13 13 13 13 13 12 12 11 11 11 10 10 10 10 10 10 9 9 9 9 9
15 15 15 15 15 15 15 15 15 15 14 14 14 13 13 14 13 13 12 12 13 13 13 13 12 10 10 10 10 10 9 9 8 8 8 8 8 8 8 8 7 7 8
16 16 16 16 16 16 16 16 16 15 15 15 14 13 12 12 12 12 13 12 11 11 11 10 9 9 8 8 8 7 7 7 7 7 7 7 7 7 7 6 6 6 6
16 16 16 16 16 16 16 15 15 14 14 14 14 13 12 13 12 11 11 10 9 9 9 8 8 7 6 6 6 5 5 5 6 6 6 5 5 5 4 3 3 4 4
16 16 16 15 16 15 15 14 13 14 14 13 13 12 11 10 10 9 8 8 8 8 7 7 6 5 5 5 4 4 3 4 4 4 4 4 3 3 2 1 1 2 3

GFSGL_925_temp_042.txt.gz
Temp
21 23 22 22 21 20 20 20 20 19 19 19 18 18 19 19 18 19 19 19 18 18 18 18 18 18 19 19 19 19 20 19 17 14 14 13 13 13 13 13 13 12 13
21 22 22 21 21 21 20 20 19 19 19 19 19 19 19 19 19 19 19 18 18 17 18 18 19 19 19 18 19 18 19 19 17 14 13 12 12 12 12 12 12 12 12
21 23 23 22 22 21 20 20 19 19 19 19 19 19 18 18 18 18 18 18 18 17 17 16 17 17 17 17 17 17 17 17 17 14 13 12 12 12 11 11 12 12 12
23 23 22 22 22 21 20 20 19 19 19 19 19 18 18 18 18 18 18 18 18 17 17 16 17 17 17 18 17 18 17 16 15 14 13 12 12 12 12 11 11 11 11
23 23 22 22 21 21 20 20 19 19 19 18 18 18 18 19 18 18 18 18 17 17 17 17 15 15 16 17 19 17 18 17 15 14 13 12 12 12 12 12 11 11 11
24 23 22 22 21 20 20 19 19 19 18 18 19 19 19 18 16 17 18 17 17 17 17 17 16 16 15 15 16 16 17 18 18 17 15 15 14 13 12 13 12 13 14
24 23 22 21 20 20 20 19 19 19 18 18 18 19 18 16 16 16 16 17 17 16 16 17 18 16 17 16 15 15 15 16 16 16 16 16 15 14 15 14 14 13 14
23 24 21 20 20 20 19 19 19 18 17 17 17 18 17 16 15 16 16 17 16 16 16 16 16 15 15 16 16 15 14 14 15 16 15 15 15 15 15 15 14 14 13
23 22 21 20 20 19 18 19 18 18 17 17 17 17 16 15 15 16 17 17 16 16 15 15 15 14 15 15 16 15 15 14 15 15 14 14 14 14 14 16 18 18 16
22 20 18 18 19 18 18 19 18 17 17 18 16 16 15 15 15 15 17 18 16 16 15 14 14 14 14 15 16 16 16 16 16 15 14 14 14 13 14 14 16 17 18
18 18 17 18 18 18 18 18 17 17 17 16 15 14 15 15 14 15 15 15 16 16 16 16 14 14 14 14 14 15 15 15 15 16 16 17 16 16 15 14 13 15 16
17 17 17 17 18 18 17 17 16 16 16 16 16 15 15 14 15 14 14 15 15 14 14 13 13 14 14 14 14 15 15 15 16 17 17 17 17 16 15 14 13 13 13
15 15 15 15 15 16 17 16 15 14 15 15 15 16 15 14 13 13 13 14 14 13 13 13 14 14 14 14 14 14 15 17 17 17 17 16 15 15 14 15 14 13 13
15 15 14 15 15 15 15 15 15 15 14 13 15 16 15 14 14 13 13 12 13 13 13 13 13 14 15 15 15 15 16 15 16 16 16 16 15 15 15 15 15 15 15
14 14 14 13 13 13 14 13 14 14 15 14 14 14 16 16 14 13 13 13 13 13 13 13 15 16 17 17 16 16 16 16 16 15 15 15 15 15 15 15 14 15 15
15 15 16 15 12 11 12 12 13 13 13 14 13 14 13 14 13 12 12 12 13 13 14 16 17 17 17 17 17 16 16 15 15 15 15 15 15 15 14 15 15 15 15
15 15 16 15 13 12 11 11 11 11 12 13 13 13 12 12 12 12 12 12 13 13 16 17 17 17 17 17 17 16 16 15 14 15 15 15 15 15 14 15 15 15 15
14 14 15 15 15 14 14 14 14 14 15 12 11 11 11 11 11 11 12 12 13 14 17 18 17 17 17 16 16 16 16 15 15 15 15 15 15 14 15 15 15 15 14
14 15 15 15 16 16 17 17 18 18 18 16 12 10 10 10 11 11 12 14 17 17 17 17 17 16 16 16 15 15 14 15 15 14 15 15 14 14 15 15 15 14 13
16 16 17 17 16 17 18 19 19 18 18 17 17 16 12 11 13 13 13 15 17 18 17 17 17 16 16 16 15 15 15 15 15 15 15 15 14 14 15 15 15 15 15
18 16 16 18 18 18 19 19 19 18 18 18 18 17 15 16 17 17 16 16 17 17 17 17 17 16 16 15 15 15 15 16 15 15 15 14 14 14 13 14 14 15 15
18 17 17 19 19 18 18 19 19 19 19 19 18 15 14 15 18 18 17 17 17 16 17 16 16 17 17 16 15 14 15 15 14 14 13 12 12 12 12 12 13 14 14
17 17 17 18 18 18 18 19 19 19 19 19 19 18 15 16 18 18 18 17 16 16 15 14 15 15 13 12 12 12 13 13 11 11 11 11 11 12 12 12 12 13 13
16 18 17 18 18 18 19 19 19 19 19 19 19 19 18 16 17 17 16 14 13 13 12 13 13 13 11 11 10 10 9 8 8 9 9 9 10 11 10 10 11 11 11
16 17 18 19 19 18 18 17 19 19 19 18 18 18 17 17 17 16 14 12 11 11 11 11 11 9 9 9 9 7 8 8 8 8 8 8 9 8 9 9 10 9 10
16 17 16 17 18 18 17 18 18 18 19 18 16 14 14 14 12 12 10 10 12 12 11 11 10 9 7 7 6 7 7 7 6 6 6 7 8 8 8 7 8 8 9

GFSGL_925_temp_045.txt.gz
Temp
22 23 24 23 22 22 22 22 21 21 21 21 20 20 21 20 20 20 20 19 18 18 19 19 20 20 20 20 20 20 20 20 17 14 14 13 13 13 13 13 13 13 14
22 24 24 23 23 22 22 22 21 21 21 21 21 21 21 21 21 21 21 19 18 18 18 18 19 19 19 19 20 19 19 19 18 14 13 12 12 12 12 12 12 12 12
23 24 24 24 23 23 22 22 21 21 21 21 20 21 21 20 20 20 20 20 18 17 18 18 18 18 18 18 19 19 18 18 17 14 12 12 12 12 12 12 12 12 12
24 25 25 24 23 22 22 21 21 21 21 21 20 20 20 20 20 20 20 19 20 19 18 17 17 16 17 19 19 18 17 15 14 13 12 12 12 12 12 12 11 11 11
25 25 25 23 22 22 22 21 21 21 21 20 20 20 21 21 19 19 20 19 19 19 18 17 16 17 18 18 19 18 18 16 14 13 13 12 12 12 12 12 12 13 12
25 25 24 23 22 21 21 21 21 21 21 20 21 21 21 19 18 18 19 19 19 18 18 18 17 17 16 16 17 17 18 18 17 16 16 15 15 15 14 15 15 14 14
25 25 23 22 22 21 21 20 21 20 20 20 20 21 19 17 17 18 18 19 19 18 18 19 19 18 18 17 17 16 16 16 17 17 16 16 16 15 15 15 16 16 16
25 25 23 22 22 21 21 20 20 19 19 19 20 20 19 16 17 17 18 18 18 18 18 17 16 16 17 17 16 15 15 16 16 16 15 15 15 15 15 16 16 15 15
22 22 23 22 22 21 20 20 19 19 19 18 19 18 18 16 16 17 17 19 18 18 17 16 16 15 16 17 17 16 15 14 15 15 15 15 15 15 15 17 17 19 19
22 22 23 22 22 21 20 20 19 19 19 18 19 18 17 16 16 17 18 19 18 17 17 15 15 15 15 16 17 17 17 17 17 15 15 15 15 15 15 15 16 18 19
21 20 20 19 20 20 19 19 19 19 18 19 18 17 17 17 16 16 17 17 16 17 18 16 14 15 15 15 15 16 16 16 16 16 17 18 18 17 17 15 14 16 16
19 19 18 18 18 19 19 19 19 17 17 18 17 17 17 16 16 16 16 16 16 16 15 15 15 15 15 15 15 16 16 16 18 18 19 18 18 17 17 15 14 14 14
17 17 17 17 17 18 18 18 17 16 16 17 18 19 18 17 15 14 15 15 15 15 15 14 15 15 15 15 15 16 16 17 18 19 18 18 17 16 15 16 16 15 14
16 16 15 16 15 16 17 16 16 15 16 17 18 17 18 18 16 14 14 14 14 14 14 14 14 14 14 16 15 16 17 17 17 17 17 17 17 17 17 16 16 16 16
15 15 15 14 14 14 15 14 15 15 16 16 17 17 18 18 18 17 16 16 15 16 14 14 14 16 17 18 18 17 17 17 17 17 17 17 17 17 17 16 16 16 16
16 16 16 15 13 13 12 13 14 15 15 16 17 17 16 16 16 15 14 15 15 14 15 16 17 19 19 19 18 18 17 16 16 16 16 16 16 16 16 16 16 16 16
15 17 17 17 15 12 12 12 12 12 13 14 14 15 15 15 14 14 13 13 14 14 14 18 19 19 19 18 18 18 18 16 15 16 16 16 16 16 16 16 16 16 16
15 16 17 18 17 15 13 14 15 13 12 12 12 13 13 13 13 13 13 13 13 13 16 19 19 19 18 18 18 18 17 17 17 16 16 16 16 16 16 16 17 16 16
16 17 17 17 17 17 16 16 15 15 16 16 13 11 11 12 12 12 12 14 17 17 18 19 19 18 18 18 17 17 16 16 16 16 16 16 16 16 16 16 17 16 15
16 16 17 18 18 17 18 18 19 20 20 19 16 15 12 10 12 12 12 14 17 19 19 19 19 18 18 17 17 16 16 16 16 16 17 16 16 16 16 16 16 16 16
18 17 17 18 20 20 21 21 22 21 21 20 19 18 15 15 17 17 17 17 18 19 19 19 19 18 17 17 17 17 17 17 17 17 17 16 16 15 15 15 15 15 16
18 16 19 19 21 21 21 21 21 21 21 21 20 16 16 15 20 19 19 19 19 19 19 18 18 19 18 18 17 17 17 17 17 16 16 15 15 15 14 15 15 15 15
17 17 18 19 21 21 21 21 21 21 21 21 20 18 16 18 20 20 19 19 19 19 18 17 17 18 18 16 15 15 16 16 15 14 13 13 14 14 14 13 13 14 14
17 16 17 18 19 20 20 20 21 21 21 21 21 20 19 19 19 20 20 19 18 17 16 16 16 16 16 15 14 14 13 12 11 12 11 11 12 12 12 12 12 13 12
18 16 16 17 18 18 18 19 20 20 20 20 19 19 19 19 19 19 18 18 16 15 14 14 14 14 14 13 14 12 11 10 10 10 9 10 11 11 10 11 11 11 11
18 17 16 16 16 17 19 18 18 17 17 18 19 19 19 18 18 16 16 14 14 13 14 14 14 13 12 11 10 9 10 9 8 8 8 8 10 10 10 10 10 10 10

GFSGL_925_temp_048.txt.gz
Temp
23 23 24 23 22 22 22 22 21 21 21 21 21 21 21 20 21 20 19 19 19 19 20 20 19 19 19 20 20 20 20 20 15 14 14 14 14 14 14 14 13 14 14
22 23 22 23 22 22 22 22 21 21 21 21 21 21 21 21 21 21 19 18 18 18 18 18 19 19 19 19 19 19 19 19 15 13 13 13 13 13 13 13 13 13 14
23 22 23 23 23 22 22 22 21 21 21 21 21 21 20 20 20 20 19 19 18 18 18 18 17 18 19 19 19 18 17 17 15 13 12 12 12 12 13 13 13 13 13
24 24 24 23 23 22 22 22 21 21 21 21 21 21 21 20 20 20 19 19 18 17 17 17 17 18 18 19 18 17 16 15 14 13 12 12 12 12 13 13 12 12 12
24 25 25 23 23 22 22 22 21 21 21 21 21 21 21 20 19 20 19 19 19 18 17 17 17 17 18 18 18 17 16 14 13 13 13 12 12 12 12 13 13 13 14
24 26 24 23 22 22 22 22 21 21 21 21 21 21 20 18 19 19 19 19 19 19 18 18 18 17 17 17 17 17 17 16 15 15 14 14 14 14 14 15 14 14 14
25 25 24 22 22 22 22 21 21 21 21 21 21 20 19 18 18 19 19 19 18 18 18 18 18 17 17 17 16 17 17 16 16 16 16 16 15 15 15 15 15 15 15
25 25 24 23 22 22 21 21 21 20 20 20 20 19 18 18 18 18 19 18 18 18 17 17 16 17 17 16 16 16 16 16 16 16 16 15 15 15 15 16 16 16 15
23 22 22 22 22 22 21 20 21 20 19 19 19 19 18 18 18 18 18 19 18 17 17 16 16 16 17 16 16 16 16 16 16 16 16 16 16 16 16 16 16 16 17
21 22 21 20 20 20 21 20 20 19 19 19 19 19 18 17 17 18 18 18 18 17 16 16 16 16 16 17 17 17 16 15 15 16 16 16 15 15 16 15 15 15 16
21 22 22 20 19 20 19 19 20 19 19 19 19 18 18 17 17 17 17 18 17 17 17 15 15 16 16 16 16 16 16 16 16 16 16 16 16 16 15 15 15 15 15
20 21 20 18 19 20 20 20 20 19 18 18 18 18 17 17 16 17 17 17 17 17 16 16 15 16 16 16 16 16 16 16 17 17 18 18 17 16 16 16 15 15 15
18 18 18 17 18 18 18 19 18 18 18 18 18 17 18 16 16 15 16 16 16 16 16 15 15 16 16 16 16 17 17 17 17 18 18 17 17 17 16 16 16 16 15
17 17 16 16 17 17 17 17 17 17 17 17 17 17 19 18 16 15 15 15 15 15 15 15 15 15 15 15 16 17 17 17 17 17 17 17 17 17 17 16 16 16 16
16 16 16 16 15 15 15 16 16 16 16 17 17 17 18 18 18 16 15 15 15 15 15 14 15 15 15 16 16 17 17 17 17 17 17 17 17 17 16 16 16 16 16
16 17 16 15 14 14 14 14 14 15 15 15 16 16 18 18 18 17 16 16 16 15 15 14 15 15 16 17 18 17 17 17 17 17 17 16 16 16 16 16 16 16 16
16 17 17 17 14 13 13 12 13 13 14 14 15 16 16 17 16 16 16 15 15 15 15 16 16 17 19 19 19 18 17 16 16 16 16 16 16 16 16 16 16 16 16
16 16 16 18 17 16 14 13 13 13 13 13 14 14 14 15 15 15 14 14 14 14 14 15 17 19 19 18 18 18 17 17 16 16 16 16 16 16 16 16 16 17 16
18 18 18 18 18 17 15 14 15 15 14 13 13 13 13 13 13 13 13 13 14 15 15 16 17 19 18 18 18 17 17 16 16 16 16 16 16 16 16 16 16 16 16
18 17 17 17 17 17 17 16 17 16 15 14 14 13 11 11 11 11 12 13 14 17 17 18 19 18 18 18 17 17 16 16 16 16 16 16 16 16 16 15 16 15 15
19 18 18 17 17 18 18 19 19 19 18 18 17 16 14 12 14 14 14 14 14 16 18 20 19 18 18 18 17 17 17 17 16 16 17 17 16 15 15 15 15 15 15
19 19 18 17 18 19 19 20 20 21 20 19 20 18 17 14 16 17 17 16 17 18 19 19 19 18 18 18 17 17 17 17 17 17 16 16 15 15 15 15 14 14 14
19 19 19 17 18 19 20 21 22 22 22 21 19 16 16 16 16 18 19 19 19 19 19 19 18 18 18 18 17 17 16 16 16 15 14 14 14 14 14 13 13 13 13
19 19 19 17 17 19 19 21 20 19 21 21 21 18 17 17 17 19 20 20 19 19 18 18 17 17 17 16 16 15 15 15 13 13 13 12 12 12 12 12 12 12 12
19 19 19 17 17 18 18 18 17 17 17 17 17 18 17 17 16 16 19 19 19 17 17 16 16 15 15 15 15 15 14 13 13 12 11 11 10 11 11 11 11 12 11
19 19 19 18 17 17 17 17 18 17 16 16 16 16 15 15 14 14 17 17 17 16 15 15 15 15 15 14 13 13 12 12 11 10 10 10 9 10 11 11 11 10 10

GFSGL_925_temp_051.txt.gz
Temp
23 23 21 22 22 22 21 21 21 21 21 21 21 20 20 20 19 19 18 19 19 19 19 19 19 19 19 19 20 20 20 20 15 14 14 14 14 14 14 13 14 14 14
23 22 22 22 22 22 21 21 21 21 21 21 21 20 20 20 20 19 18 18 18 18 19 19 19 20 19 19 19 19 18 18 15 13 13 13 13 13 13 14 13 14 14
23 22 22 22 22 22 21 21 21 21 21 20 20 20 20 20 19 19 18 18 17 17 18 18 19 19 19 19 18 18 17 15 14 13 12 13 12 13 13 13 13 13 13
23 23 23 22 22 22 21 21 21 21 20 20 20 20 20 20 19 19 18 18 18 17 18 18 18 18 18 18 17 17 16 15 14 13 13 12 13 13 13 13 13 13 13
23 23 23 23 22 22 21 21 21 21 21 20 20 20 20 20 19 19 18 18 18 17 17 17 17 17 18 18 18 16 16 14 13 13 13 12 13 13 13 13 13 13 13
24 23 23 23 22 22 22 21 21 21 21 21 20 20 20 19 19 19 19 18 18 18 17 17 17 17 17 17 17 17 17 16 15 14 13 13 14 14 14 14 14 13 13
24 24 24 23 23 22 22 21 21 21 21 21 20 20 20 19 19 19 18 18 18 18 18 16 17 16 17 16 16 16 16 16 16 16 15 15 14 14 15 15 14 15 15
24 23 23 23 22 20 21 21 21 21 20 20 20 19 19 19 18 18 18 18 18 17 17 17 17 17 17 17 16 16 16 16 16 16 16 15 15 15 15 15 15 15 15
23 22 22 21 20 19 19 19 20 20 20 20 19 19 19 18 18 18 18 18 17 17 17 16 16 16 16 17 17 17 17 16 16 16 16 16 16 16 16 16 16 16 14
21 20 20 19 20 19 18 17 17 19 19 19 19 19 19 19 18 18 18 17 17 17 16 16 16 16 16 16 16 16 16 16 16 16 16 15 15 15 16 16 15 15 15
21 20 21 20 21 20 19 19 17 18 18 18 18 18 18 18 18 17 18 18 17 17 16 16 16 16 16 16 16 16 16 16 15 15 16 15 15 15 15 16 16 15 15
20 20 21 21 19 18 18 18 18 18 18 18 17 18 17 17 17 17 17 17 17 17 16 16 16 16 16 17 17 17 16 16 16 16 16 16 16 15 15 16 16 15 15
18 18 18 18 18 17 18 19 18 18 18 18 17 17 17 17 17 16 17 17 17 17 16 16 16 16 16 16 16 16 16 17 17 17 17 16 17 17 16 16 16 16 15
17 18 17 17 17 16 17 17 18 18 17 17 17 17 17 16 17 16 16 16 16 16 16 15 16 16 16 16 16 16 17 17 17 17 17 17 17 16 16 16 16 16 16
17 16 16 16 15 15 15 15 16 16 17 17 17 18 17 16 17 17 17 16 15 15 15 15 15 15 15 16 16 16 16 17 17 17 17 16 16 16 16 16 16 16 16
17 16 16 16 16 15 14 14 14 15 15 16 16 16 17 17 17 17 17 16 15 15 14 14 15 15 16 16 16 16 16 17 16 16 16 16 16 16 16 16 16 16 15
17 17 17 16 16 15 15 13 13 13 14 14 15 15 16 17 17 17 16 16 15 15 15 15 15 15 15 16 16 16 17 17 16 16 16 16 16 16 16 16 16 16 16
17 17 17 17 17 16 16 15 14 13 13 13 14 14 14 15 15 15 16 15 15 15 15 15 15 15 16 16 17 17 17 16 16 16 16 16 16 16 16 16 16 15 15
17 18 18 17 17 17 16 15 15 14 13 13 13 13 14 13 13 14 14 14 14 14 15 15 15 16 16 17 18 17 17 16 16 16 16 16 16 16 16 16 15 15 15
19 18 18 18 17 17 17 16 16 15 14 13 13 13 12 12 12 13 13 13 13 14 14 15 15 16 16 18 18 17 16 16 16 16 16 16 16 16 15 15 15 15 15
19 19 19 18 18 17 17 17 16 16 15 15 14 15 15 14 12 13 13 13 13 14 15 15 16 17 18 18 18 17 17 17 16 17 16 16 15 15 15 15 15 15 14
19 19 19 18 18 17 17 18 18 17 17 16 15 15 15 14 13 13 14 14 14 15 16 16 17 17 18 18 18 17 17 17 16 16 16 15 15 15 15 14 14 14 13
20 19 19 19 18 18 18 18 19 19 19 17 16 16 15 15 14 15 15 16 16 17 17 17 18 18 18 18 18 17 17 17 16 16 16 15 15 14 14 13 13 13 13
20 20 19 19 18 18 18 18 17 17 18 17 16 16 16 16 15 16 16 16 17 18 19 18 18 18 17 17 17 16 16 16 15 15 15 14 14 13 13 12 12 12 12
17 19 19 19 18 18 17 18 17 17 17 17 17 16 16 16 17 16 16 17 16 16 18 18 18 17 17 16 16 16 16 15 15 14 14 13 12 12 11 11 11 11 11
16 18 18 18 17 17 16 17 17 17 17 17 17 16 16 15 15 15 15 14 14 13 14 15 16 16 15 15 15 14 14 14 13 12 11 11 11 11 10 10 10 10 10

GFSGL_925_temp_054.txt.gz
Temp
22 22 22 21 21 21 21 21 21 21 21 20 20 20 20 19 19 19 19 19 19 19 19 19 19 19 20 20 19 20 20 19 15 14 14 14 14 14 14 14 14 14 14
23 22 22 21 21 21 21 21 21 21 21 21 20 20 19 19 18 18 18 18 18 19 19 19 18 19 19 19 19 19 19 18 15 14 13 13 13 13 13 13 13 14 14
22 22 22 21 21 21 21 21 21 20 20 20 20 20 19 19 18 18 18 18 18 18 18 19 18 19 18 18 18 18 17 15 14 13 13 13 12 13 12 12 12 13 13
22 22 21 21 21 21 21 21 20 20 20 20 20 19 19 18 18 18 18 18 17 17 18 18 18 18 18 18 18 17 15 14 14 14 13 13 13 12 13 12 12 13 13
22 22 22 22 22 21 21 21 20 20 20 20 20 19 19 19 18 18 18 18 18 17 17 17 17 17 17 17 17 16 15 14 13 13 13 12 12 12 13 13 13 13 13
23 22 22 22 22 21 21 21 21 20 20 20 20 19 19 19 18 18 18 17 17 17 16 16 17 17 17 17 17 16 17 16 14 14 13 13 13 14 14 14 14 13 13
23 23 22 22 21 21 21 21 21 20 20 20 19 20 19 19 18 18 18 18 17 17 17 16 17 16 17 17 16 16 16 16 16 16 15 15 14 14 14 14 14 14 14
23 23 23 22 22 21 21 20 18 18 20 20 19 19 19 18 18 18 18 18 17 17 17 17 17 16 16 16 16 16 15 15 16 16 16 15 15 15 15 15 15 15 14
22 22 22 20 21 19 19 17 18 17 17 18 19 19 19 18 18 18 18 17 17 17 16 16 17 17 16 16 17 17 16 16 16 16 16 16 15 16 16 16 15 15 13
20 21 21 21 20 19 18 18 19 18 16 17 17 18 19 18 18 17 17 17 17 16 16 16 16 16 16 16 17 17 16 16 15 15 15 15 15 16 16 16 16 16 13
20 20 19 19 20 20 19 18 18 18 16 17 17 17 18 18 18 17 17 17 17 16 16 16 16 16 16 16 16 16 16 16 15 15 15 15 15 15 15 15 15 15 15
19 19 19 19 19 19 19 18 18 17 17 17 17 16 17 17 18 17 17 17 17 17 17 16 16 16 16 16 16 16 16 15 15 15 15 15 15 15 15 15 15 15 15
18 18 17 17 17 18 18 18 17 18 17 17 17 17 16 16 17 17 17 17 17 17 17 17 16 16 16 16 16 16 16 16 16 16 16 15 16 15 15 15 15 15 15
18 17 17 17 16 17 17 17 17 17 17 17 17 16 16 16 16 16 17 16 16 16 16 16 16 16 16 16 15 16 16 16 16 16 16 16 15 15 15 16 16 15 16
17 17 17 16 16 16 15 15 15 16 16 17 17 16 16 15 16 17 17 16 16 16 16 15 15 15 15 15 15 16 15 16 16 16 16 16 16 16 16 15 16 15 15
17 17 17 17 16 15 16 15 15 15 15 15 16 16 16 16 17 16 17 16 16 15 14 14 14 15 15 15 16 16 16 16 16 16 16 16 16 16 16 15 15 15 15
18 17 17 17 17 16 15 14 14 15 15 15 15 15 15 15 16 16 16 16 15 14 15 15 14 15 15 15 15 16 16 16 16 16 16 16 16 15 15 15 15 15 15
18 17 17 17 17 16 17 16 15 14 14 14 14 14 14 15 15 16 15 15 14 13 14 14 15 15 15 15 16 16 16 16 16 16 16 16 16 16 15 15 15 15 15
18 18 17 17 17 17 17 17 17 15 14 14 13 13 13 14 14 14 13 14 14 14 14 15 15 15 15 15 16 16 16 16 16 16 16 16 16 16 16 15 15 15 15
18 18 18 18 18 17 17 16 16 15 15 14 14 14 13 12 12 13 13 14 14 14 15 15 15 15 15 15 15 16 17 16 16 16 16 16 16 15 16 15 15 15 14
20 19 19 18 18 18 17 16 16 16 15 15 15 16 15 14 13 13 13 13 13 13 14 14 14 14 15 15 15 16 17 16 16 16 16 16 16 15 15 15 15 15 15
17 19 19 19 18 18 17 17 17 17 16 16 16 16 15 14 14 14 13 13 13 13 14 14 14 14 15 16 16 16 17 16 16 16 16 16 16 16 15 14 14 14 14
17 17 18 19 18 18 18 17 17 17 18 18 16 15 15 15 14 14 14 13 14 14 15 14 15 15 16 16 16 17 17 17 17 17 17 16 16 14 14 14 14 13 13
15 16 16 17 17 18 17 17 17 17 18 18 18 16 15 13 14 14 15 14 15 15 15 15 15 16 16 16 16 17 18 17 17 17 16 16 15 14 14 13 13 12 12
14 15 15 16 16 17 16 15 15 16 17 18 18 17 15 14 13 14 14 15 16 16 16 16 16 17 17 17 17 17 16 16 16 15 16 15 14 13 11 11 11 11 11
13 14 15 16 16 15 15 15 15 14 14 14 14 15 15 15 14 14 14 14 14 14 13 13 13 14 15 14 15 14 13 13 13 14 12 12 11 11 11 11 10 10 10

GFSGL_925_temp_057.txt.gz
Temp
22 21 22 21 21 21 20 20 20 20 20 20 19 19 19 19 19 19 18 18 19 18 18 19 19 19 19 19 19 19 19 18 15 14 14 14 14 14 14 14 14 14 14
22 21 21 21 21 21 20 20 20 20 20 20 19 20 19 19 18 18 18 18 18 18 18 18 18 18 19 19 18 19 18 18 16 14 13 13 14 13 13 14 13 14 14
22 22 21 21 21 21 20 20 20 20 20 20 20 19 19 19 18 18 18 18 18 18 18 18 18 18 18 18 18 18 17 16 15 14 13 13 12 13 12 12 13 13 13
22 21 21 21 21 21 21 20 20 20 20 20 19 19 18 18 18 18 18 17 17 17 18 18 18 18 18 17 17 16 15 15 14 14 13 13 12 12 12 12 12 12 12
21 21 21 21 21 21 21 20 20 20 20 19 19 19 18 18 18 18 18 17 17 17 17 17 17 17 17 17 18 16 14 14 13 13 13 13 12 12 12 12 12 12 12
21 21 22 21 21 21 21 21 20 20 19 19 19 19 19 18 18 18 18 17 17 17 17 17 17 17 17 17 16 15 16 14 14 13 13 13 13 13 13 13 13 12 12
22 22 21 21 21 20 19 18 19 18 18 19 19 19 19 18 18 18 17 17 17 17 17 17 16 16 16 17 16 15 15 15 16 16 15 14 14 14 14 13 13 14 14
22 22 21 21 21 18 18 18 18 18 17 17 17 18 19 18 18 18 17 17 17 17 16 16 16 16 16 16 16 15 15 15 15 15 15 15 15 15 15 15 15 14 13
21 21 21 21 21 19 18 18 18 18 17 17 16 17 18 18 18 18 17 17 17 16 16 16 17 16 16 16 16 15 15 15 15 15 15 15 15 15 15 15 14 14 13
21 21 21 20 20 20 19 18 18 17 17 16 16 16 16 18 18 17 17 17 17 16 16 16 16 16 16 16 17 17 16 15 15 15 15 15 15 15 15 15 15 15 13
20 20 19 19 19 19 18 18 18 17 17 17 16 16 16 16 17 17 17 17 17 16 16 16 16 16 16 16 17 16 16 15 15 15 15 15 15 15 15 15 15 15 14
19 19 18 19 18 18 18 17 17 17 16 16 16 16 16 16 16 17 17 17 17 17 16 16 16 16 16 16 16 16 15 15 15 15 15 15 15 15 15 15 15 15 14
18 18 18 17 17 17 17 17 17 18 17 16 16 16 16 16 16 16 16 17 17 16 17 17 16 16 15 15 15 15 15 15 15 14 15 15 15 15 15 14 14 15 14
17 17 17 17 17 17 16 16 15 16 17 16 16 16 16 16 16 15 15 15 17 16 16 16 16 16 15 15 15 15 15 15 15 16 16 15 15 15 15 15 15 15 15
18 17 17 17 17 16 16 16 16 15 15 15 16 16 16 16 16 17 16 15 16 16 16 15 15 15 15 15 15 15 15 15 15 15 15 15 15 15 15 15 15 15 15
17 17 17 17 16 16 16 17 17 16 16 15 15 15 15 15 16 16 16 15 15 16 15 15 14 14 15 15 15 15 15 15 15 16 16 16 15 15 15 14 15 15 15
18 18 17 17 16 16 16 16 16 17 17 17 15 15 14 15 15 15 15 15 14 15 14 15 15 15 15 15 15 15 15 15 16 16 16 16 15 15 15 15 14 14 15
18 18 18 17 17 16 16 16 15 16 16 17 16 15 15 14 14 14 15 15 13 12 14 13 14 15 15 15 15 15 15 15 15 16 15 15 15 15 15 14 14 15 15
18 18 18 17 17 17 16 16 16 15 15 15 15 15 14 14 14 14 14 14 13 13 12 13 14 14 14 15 15 15 15 15 15 15 15 15 15 15 15 15 15 15 15
18 18 17 17 17 17 16 16 16 15 15 15 15 15 14 14 13 14 14 14 13 12 12 12 13 13 14 14 15 15 15 15 15 15 15 15 15 15 15 15 15 14 14
17 17 17 17 16 18 17 16 16 16 15 15 15 16 16 15 14 14 14 14 14 13 13 13 13 13 12 14 14 14 14 15 15 15 15 16 15 15 15 15 15 15 15
16 16 16 16 17 17 18 17 16 16 16 16 16 17 15 14 14 14 14 13 13 13 13 13 13 13 13 13 14 14 15 15 15 15 16 16 16 15 15 15 15 14 14
15 15 16 16 16 16 16 16 16 16 17 17 17 17 15 14 14 14 13 14 14 14 14 14 13 13 13 13 14 14 15 15 16 16 16 16 16 15 15 14 14 14 13
14 14 15 16 16 16 16 16 15 16 16 16 17 17 17 16 15 14 14 14 15 15 16 15 14 15 15 14 15 15 15 15 15 15 16 16 15 15 14 14 13 13 13
12 13 13 13 15 15 16 16 15 15 15 15 15 15 15 14 12 12 12 12 13 14 14 15 15 14 14 15 15 15 15 14 15 15 15 14 13 13 13 14 13 12 11
11 11 12 12 12 13 13 12 13 13 13 13 13 13 13 12 12 12 11 11 11 11 12 13 13 14 14 14 14 13 12 13 13 13 13 12 12 12 11 11 10 10 10

GFSGL_925_temp_060.txt.gz
Temp
21 21 21 21 20 20 21 20 20 19 19 19 19 19 19 19 18 18 18 18 18 18 18 18 18 18 18 18 18 18 18 18 15 14 14 14 14 14 14 14 14 15 14
22 21 21 20 20 20 20 20 20 20 19 19 19 19 19 18 18 17 17 17 18 18 18 18 18 18 18 18 18 18 18 18 16 14 13 13 13 13 13 13 13 13 14
21 21 20 20 20 20 20 20 20 20 20 20 19 19 19 18 18 17 17 17 18 18 17 17 18 17 18 17 17 18 17 17 16 14 13 13 12 12 12 12 13 13 13
21 20 20 20 20 20 20 20 20 20 20 19 19 19 18 18 18 18 18 17 17 17 17 17 17 17 17 17 17 17 16 16 15 14 13 12 12 12 12 12 12 13 13
21 20 21 21 20 20 20 20 20 20 20 19 19 19 18 18 18 18 17 17 17 17 17 17 17 17 17 17 17 15 15 15 14 13 13 13 12 12 12 12 12 12 12
21 21 21 20 20 20 20 19 19 19 19 19 19 19 18 18 18 18 18 17 17 17 17 16 17 17 16 16 16 15 14 14 14 13 13 13 13 13 13 13 12 11 12
21 21 21 21 20 20 19 19 19 18 19 18 18 18 19 18 18 17 17 17 17 17 17 16 16 16 16 16 15 14 14 14 15 15 14 14 14 14 14 13 13 13 13
21 21 21 21 21 20 19 18 18 18 19 19 18 17 17 18 18 17 17 17 17 17 17 17 17 16 16 16 16 15 15 15 15 15 16 15 15 15 15 14 14 14 13
21 21 21 21 21 19 18 18 17 17 18 17 17 17 16 17 17 17 17 17 17 16 16 17 17 16 16 16 16 16 15 15 15 15 15 15 15 15 14 14 13 13 12
21 21 21 20 19 19 19 18 17 17 17 17 17 17 17 16 16 17 17 17 17 16 16 16 16 16 16 15 16 15 15 14 14 14 15 15 15 14 14 14 14 13 12
20 20 19 19 19 18 18 18 17 17 17 16 16 15 16 16 16 16 16 17 17 17 16 16 16 16 16 16 16 16 16 16 15 15 15 15 15 15 15 15 15 14 14
19 19 18 18 18 18 18 17 17 16 16 16 16 16 15 16 16 16 16 16 17 17 17 17 16 16 16 16 16 15 15 15 15 15 15 15 15 15 15 15 14 14 14
18 18 17 17 17 16 16 16 16 16 16 16 16 15 15 16 16 16 15 15 15 16 17 17 16 16 15 15 15 15 15 15 15 14 15 15 15 15 15 15 14 14 14
17 16 17 17 17 17 17 17 16 16 16 16 16 16 15 16 16 16 15 15 15 15 15 16 16 15 15 15 15 14 15 14 14 15 15 15 15 14 14 15 14 14 14
17 17 17 17 17 17 17 16 16 16 15 15 15 15 16 16 16 16 16 16 15 15 15 14 15 14 14 14 14 15 15 14 14 14 14 14 15 14 14 14 14 14 14
17 17 17 16 16 16 15 16 16 17 17 17 16 15 15 15 15 15 15 16 15 15 13 13 13 14 14 15 14 15 14 14 15 15 15 14 15 15 15 14 14 14 14
18 17 17 16 15 15 15 15 15 16 16 17 17 17 15 15 14 15 15 15 15 14 12 13 13 13 13 14 14 15 14 15 15 15 15 15 15 15 14 14 14 13 13
18 17 17 17 17 16 16 16 15 15 15 16 16 15 15 15 15 14 14 14 12 11 11 13 13 13 13 13 14 14 14 15 14 15 15 15 15 15 14 13 13 13 14
17 17 17 17 16 16 16 16 16 15 15 15 15 15 15 15 15 14 14 13 12 11 11 11 12 13 13 13 13 14 14 15 15 15 15 15 15 14 14 14 14 14 14
16 17 16 16 16 16 16 16 16 16 15 15 15 16 15 14 14 14 14 13 12 12 12 12 12 12 11 12 12 12 12 13 14 14 14 15 15 15 14 14 14 13 13
16 16 15 15 15 16 16 16 16 16 16 16 16 16 16 14 15 14 15 14 14 13 13 13 13 12 12 12 12 11 12 12 13 14 14 14 14 13 14 14 14 14 14
14 14 15 15 15 15 15 16 15 16 16 16 16 16 16 15 14 13 13 13 13 13 13 13 13 13 13 13 13 12 12 12 12 13 13 14 13 12 13 14 14 13 13
13 13 14 14 15 15 15 15 15 15 15 15 15 15 15 15 14 13 13 12 12 12 13 13 13 12 12 12 12 12 12 12 13 12 12 13 13 12 13 13 14 13 13
11 12 12 13 13 14 14 14 13 13 13 14 14 14 14 14 13 12 12 12 11 12 11 12 13 13 13 12 13 12 13 13 13 12 12 13 12 14 13 11 13 13 12
11 10 10 11 11 12 12 12 12 12 12 12 11 11 12 12 11 12 12 11 11 11 11 12 12 12 12 12 13 13 12 12 11 12 12 13 12 13 12 12 12 10 10
10 10 10 10 10 10 10 10 10 10 10 9 9 9 9 9 9 9 9 9 10 10 10 10 10 10 10 11 11 12 12 12 13 12 11 11 11 10 11 11 10 10 8

GFSGL_925_temp_063.txt.gz
Temp
21 20 20 20 20 20 20 19 19 18 19 18 18 18 18 18 19 18 18 18 18 18 18 18 18 18 18 18 19 19 18 19 15 14 14 14 14 14 14 14 14 14 14
21 20 20 20 20 19 19 19 19 19 19 19 18 18 18 18 17 17 18 17 18 18 18 18 18 18 18 18 18 18 18 18 16 14 13 13 13 13 14 14 13 14 13
21 20 20 20 20 20 19 19 19 19 19 19 19 18 18 18 17 17 17 17 17 17 17 18 18 18 17 17 18 17 17 17 16 14 13 13 12 12 12 13 13 12 13
21 21 20 20 20 20 20 19 19 19 19 19 19 18 18 18 17 17 17 16 16 16 16 17 17 17 17 17 17 17 16 16 15 14 13 12 12 12 13 12 12 12 12
21 21 21 20 20 20 19 19 19 19 19 19 19 18 18 18 18 17 17 16 16 16 16 16 16 17 17 16 16 16 16 15 14 13 13 12 12 12 12 12 13 12 12
21 21 20 20 20 20 19 19 19 20 20 19 19 18 18 18 18 18 17 17 16 16 16 16 16 17 17 17 16 15 16 15 15 14 14 13 12 12 12 12 11 12 15
21 21 20 20 20 19 19 19 19 18 18 18 18 18 18 18 18 18 18 17 17 16 16 16 17 16 16 15 16 14 14 15 15 15 15 15 14 13 13 12 12 14 17
21 21 20 20 20 19 19 19 18 18 18 17 18 18 17 17 17 17 17 16 16 16 16 16 16 15 15 15 15 15 15 15 14 15 15 15 15 14 14 14 13 14 14
21 21 20 20 20 19 18 18 18 17 17 17 17 17 17 16 17 16 16 16 16 16 16 16 15 15 16 16 16 15 15 15 15 15 15 15 15 15 14 14 15 16 16
21 21 20 20 19 18 18 18 17 18 17 17 16 16 16 16 16 16 16 17 16 17 15 16 16 15 16 16 16 16 16 15 15 14 15 15 15 14 14 15 16 17 17
20 19 19 19 18 18 18 17 17 17 16 17 16 16 16 15 15 15 16 16 17 16 16 16 16 16 16 16 16 15 16 15 15 14 15 14 14 14 14 14 14 16 17
19 18 18 17 17 17 17 17 17 17 17 16 16 16 15 15 15 16 15 15 15 15 16 16 16 16 16 16 16 16 16 16 15 16 16 16 16 16 15 14 14 14 14
17 17 16 17 16 17 16 16 16 16 17 16 16 17 17 15 16 15 15 15 15 15 15 16 16 16 16 15 16 15 15 15 15 16 16 16 16 16 14 14 14 14 14
16 16 16 17 16 16 16 17 17 16 16 16 16 16 16 16 16 15 15 15 15 15 15 15 15 16 15 15 15 14 14 14 15 16 16 17 16 14 14 14 15 14 15
17 17 17 17 16 16 15 16 16 16 16 15 15 15 15 16 16 16 16 16 16 16 15 14 13 13 14 14 14 14 13 14 13 14 15 15 15 15 15 14 14 15 15
17 17 18 18 17 17 16 17 16 16 17 17 16 16 15 15 15 15 15 15 15 15 13 13 12 13 14 14 13 14 14 14 14 14 14 14 15 15 15 14 13 14 15
17 17 17 17 18 18 17 17 18 17 17 17 16 16 17 16 15 15 15 15 14 13 12 13 12 13 14 13 13 13 14 14 14 13 14 14 14 14 13 14 14 14 15
17 17 18 18 18 18 18 18 18 18 18 18 16 16 16 16 16 15 15 15 14 13 12 12 12 13 13 12 13 13 13 13 13 13 14 15 15 15 15 15 15 15 15
17 18 18 18 17 18 17 18 18 18 18 18 18 17 16 16 16 16 15 14 13 13 12 11 11 12 12 12 12 12 12 11 12 11 12 14 15 15 16 16 16 15 15
17 16 16 17 18 18 18 18 19 18 18 18 18 18 17 15 17 17 14 12 13 12 12 12 12 11 12 12 11 11 10 10 10 10 11 13 15 15 16 16 16 16 15
16 16 15 15 16 17 18 18 18 18 18 19 19 18 16 16 17 17 17 16 14 14 13 13 12 12 11 11 11 10 11 11 11 10 10 11 14 15 15 16 16 16 16
14 15 14 16 16 16 17 17 17 17 17 18 17 16 16 16 16 16 16 15 15 14 14 14 14 14 14 14 13 11 11 11 11 10 11 10 12 12 13 14 15 16 16
13 12 13 14 14 14 16 16 16 16 17 17 17 16 16 16 15 15 14 14 13 13 13 13 13 14 14 14 14 13 14 14 14 12 10 10 10 11 12 12 12 12 14
10 12 12 12 12 14 15 15 15 14 14 15 15 15 14 14 14 13 12 12 12 12 12 12 12 12 12 12 12 12 12 12 12 12 11 11 11 10 9 10 11 9 12
10 10 10 11 11 12 13 13 13 13 13 13 13 12 12 12 12 11 11 11 11 11 10 10 10 10 10 10 10 11 11 10 10 10 10 10 10 9 9 8 9 9 9
10 10 10 10 10 10 10 10 10 10 10 10 10 10 9 9 9 9 9 9 9 9 9 9 9 9 9 10 10 10 9 9 9 9 9 8 8 9 9 8 8 8 8

GFSGL_925_temp_069.txt.gz
Temp
26 26 25 24 24 24 24 23 23 23 22 22 22 22 22 22 22 22 22 22 22 22 22 22 22 21 21 20 20 21 20 21 21 15 15 15 15 15 15 15 15 15 15
26 26 25 24 24 24 24 24 23 22 22 22 23 23 22 22 23 22 22 23 23 22 22 21 22 22 21 20 20 20 20 21 20 15 14 14 15 15 15 15 16 17 15
26 26 26 25 24 24 24 24 23 23 23 23 23 22 22 22 23 22 22 22 22 22 22 21 21 21 21 21 20 20 20 20 18 15 14 14 14 14 15 15 16 16 15
26 26 27 26 25 25 24 24 23 23 23 23 23 23 23 23 22 22 22 22 22 22 21 21 21 21 20 20 19 19 19 19 18 15 14 14 14 14 14 15 15 15 14
28 27 27 26 26 25 24 24 24 23 24 23 22 22 22 22 22 22 22 22 22 22 21 21 20 19 19 19 18 19 18 18 16 15 14 13 13 13 14 16 17 17 16
28 27 27 26 25 25 24 24 24 23 23 22 22 22 21 21 20 20 21 22 22 22 22 21 20 19 19 18 18 18 18 18 17 16 15 14 14 14 15 15 16 16 16
28 28 26 26 25 24 24 24 23 23 22 22 21 21 21 20 19 19 20 20 21 22 21 21 21 20 19 18 18 17 17 17 18 17 16 15 14 14 15 14 15 17 17
27 27 26 25 25 24 24 24 23 22 22 21 21 20 20 18 18 18 18 19 19 20 21 21 21 21 20 20 19 19 18 17 17 16 16 15 15 15 15 15 15 15 15
27 27 26 25 25 24 24 24 23 22 21 21 21 20 19 18 18 17 17 18 19 20 20 20 20 20 19 19 20 20 18 17 17 17 16 16 17 16 15 14 14 14 14
26 26 25 25 25 24 24 23 22 21 21 22 21 20 20 18 17 16 16 17 18 19 19 19 18 18 18 18 18 19 20 19 19 17 16 16 16 16 15 15 16 16 17
27 26 25 24 24 24 23 21 20 21 22 21 21 20 19 18 17 17 16 17 17 18 19 19 18 18 18 18 18 18 19 19 19 18 18 18 17 16 15 15 16 16 17
26 25 24 24 24 23 22 21 22 22 21 20 20 20 21 19 17 17 16 16 16 16 18 19 19 18 18 17 17 17 18 18 19 19 20 20 18 18 18 17 17 17 18
24 23 23 22 22 21 21 20 20 20 22 23 22 22 22 19 19 17 17 16 16 16 17 17 17 17 17 16 16 16 16 17 19 21 21 21 21 20 20 19 18 17 17
19 20 20 20 20 20 21 20 21 23 22 21 22 21 21 19 20 18 16 16 16 16 16 16 16 16 16 16 16 16 16 17 18 19 20 20 20 19 18 18 17 16 16
19 19 19 20 20 19 21 21 22 22 20 22 22 21 22 22 19 17 17 17 17 17 18 18 17 17 17 17 17 17 16 17 17 18 19 20 20 20 19 18 17 17 17
20 21 22 22 21 21 21 20 20 19 19 19 18 19 19 18 18 17 16 16 16 15 15 14 15 15 16 18 18 18 18 17 18 18 18 17 16 16 16 17 18 18 18
21 22 22 21 22 22 23 23 22 19 19 19 18 18 18 18 17 17 16 16 16 15 14 14 14 14 14 15 15 15 16 16 16 17 16 14 14 14 13 14 15 17 18
19 19 21 22 23 23 23 23 24 24 22 20 18 19 19 18 17 17 17 16 17 16 15 15 14 14 14 14 14 14 14 14 14 14 14 13 13 12 12 13 13 13 13
16 17 19 19 21 21 22 23 24 25 24 24 22 18 18 18 18 18 17 16 20 21 20 19 17 15 14 14 13 13 13 13 13 12 12 12 11 11 10 11 12 12 12
15 15 16 17 17 19 20 21 22 22 24 23 21 19 18 18 19 19 17 19 20 21 21 19 17 16 14 13 13 13 12 12 11 11 11 10 10 10 10 10 11 12 11
14 14 15 15 16 17 17 19 22 24 24 22 21 18 18 20 21 21 20 20 19 18 17 17 18 16 16 15 15 15 15 14 13 12 11 10 10 10 10 9 10 10 11
17 18 18 18 21 22 22 23 23 23 23 20 19 18 18 19 19 18 18 17 17 17 18 17 18 16 16 15 14 14 14 13 13 13 13 12 11 11 10 10 10 10 10
17 19 20 20 20 20 21 21 21 20 20 19 18 16 16 16 17 17 17 16 15 15 15 15 14 14 14 13 12 10 10 10 10 11 11 12 12 12 11 11 10 10 10
14 15 16 17 18 18 17 17 18 17 16 16 17 18 17 17 16 15 15 14 14 13 13 13 13 12 12 11 10 9 9 10 10 10 10 11 10 9 9 9 10 10 10
12 12 13 13 16 16 17 16 16 16 16 16 15 15 15 15 14 14 13 13 13 13 13 12 12 12 11 11 10 9 9 9 9 9 10 11 11 10 10 10 9 9 8
12 11 12 12 13 15 15 15 15 15 14 14 14 14 14 14 13 14 13 14 12 11 11 12 12 11 10 10 9 9 9 8 8 8 9 10 10 10 10 10 9 9 8

GFSGL_925_temp_072.txt.gz
Temp
26 26 24 24 24 23 24 24 23 23 23 23 23 22 22 22 21 21 21 21 21 21 21 21 22 21 21 21 21 21 20 20 18 16 16 16 16 16 16 16 15 16 16
26 26 25 25 24 24 24 24 23 23 22 23 23 23 22 23 23 23 22 22 23 22 22 22 22 21 21 21 21 21 20 20 17 16 15 15 15 15 16 16 16 15 16
26 27 25 25 24 24 24 24 24 23 23 23 23 23 22 23 23 23 22 22 22 22 22 22 21 21 21 21 20 20 20 19 18 15 14 15 15 15 15 16 16 15 15
27 26 26 25 24 24 24 24 24 23 23 23 23 23 23 22 23 22 22 22 22 22 22 21 21 21 20 20 20 20 19 18 17 15 14 14 14 15 15 15 16 15 15
26 26 27 25 25 24 24 24 24 24 24 24 23 23 22 22 22 22 22 22 22 22 22 21 21 20 20 19 19 19 19 18 16 15 14 14 14 14 14 15 15 15 15
27 27 27 26 25 25 25 24 24 24 23 23 22 22 22 21 21 21 21 22 21 22 22 21 21 20 19 19 18 19 18 18 17 16 15 14 14 14 15 15 16 16 16
28 27 27 26 26 25 25 24 24 23 23 22 22 22 21 20 20 20 20 21 20 21 21 21 21 20 19 19 18 18 18 18 18 17 16 15 14 14 15 16 16 17 16
28 27 27 26 25 25 24 24 24 23 22 22 22 21 21 20 20 19 19 19 20 20 20 21 21 20 20 20 19 19 18 18 17 17 17 16 16 15 15 16 16 16 15
28 27 26 26 25 24 24 24 23 23 22 22 22 22 21 20 19 18 18 18 19 19 19 20 20 20 20 20 19 19 18 18 18 18 17 16 16 16 15 15 14 15 14
27 27 26 25 25 24 24 24 23 22 22 22 21 21 20 19 18 18 17 17 18 18 18 19 19 19 19 19 19 18 19 18 18 17 17 17 17 16 16 16 15 14 15
27 26 25 25 25 24 24 23 22 21 22 21 21 21 20 19 18 17 17 16 17 17 18 17 18 19 18 18 18 18 18 18 18 18 17 17 17 16 15 15 15 15 15
26 26 25 24 24 24 23 22 21 22 22 21 21 21 21 20 19 17 17 17 17 17 17 17 18 18 18 18 18 18 17 18 18 18 19 18 17 16 16 17 16 16 16
20 17 20 23 23 23 22 22 22 21 22 21 21 22 22 20 19 18 17 17 17 16 16 17 17 17 17 17 17 18 17 18 18 19 20 20 19 19 18 17 17 17 17
18 16 19 21 21 22 21 21 21 21 21 23 22 22 21 21 19 18 17 17 17 17 17 16 17 16 16 17 16 16 17 17 17 18 18 19 20 20 19 18 17 17 17
17 17 19 21 21 20 20 21 21 21 22 21 22 22 22 18 18 18 18 17 17 17 16 17 17 16 16 16 16 16 16 16 16 17 17 18 19 19 19 19 19 18 17
19 19 19 20 20 21 20 19 19 19 20 20 20 20 19 19 18 18 17 17 17 16 16 15 15 16 15 16 16 16 17 17 17 16 16 16 18 16 16 16 15 16 16
20 20 20 21 21 21 20 20 19 19 19 19 20 20 19 19 18 18 17 17 16 16 15 15 15 15 15 15 15 14 15 15 14 15 15 14 15 15 14 14 13 13 13
14 14 18 17 18 19 21 21 20 19 18 18 19 18 19 18 18 18 17 17 17 17 17 17 16 15 15 14 14 14 14 14 13 13 13 13 13 13 13 12 12 12 11
15 13 13 13 16 17 17 20 20 20 20 20 19 18 18 18 18 17 17 17 18 19 18 19 17 16 15 15 14 13 13 13 12 12 12 12 11 11 11 11 11 11 11
13 15 15 14 14 15 16 17 16 18 18 19 19 18 18 17 18 17 17 18 18 18 18 18 17 16 16 14 14 14 13 13 13 12 12 11 11 11 10 10 10 11 11
15 15 15 15 15 15 15 16 16 17 17 17 19 17 18 18 18 17 17 17 17 18 17 17 16 15 15 14 14 14 14 13 13 13 13 12 11 10 10 10 10 10 10
16 16 16 16 15 15 15 16 17 17 19 18 16 17 18 19 18 17 16 17 16 15 15 16 15 15 14 13 12 12 11 10 10 11 11 12 11 11 11 11 11 10 10
17 18 19 19 18 18 19 19 19 19 18 17 17 17 17 17 17 16 16 15 14 14 14 14 13 13 13 11 10 9 9 9 9 10 11 11 11 11 10 10 10 10 10
14 15 16 17 17 17 17 17 16 17 16 17 17 16 16 16 15 14 14 14 14 13 13 13 12 12 12 11 10 9 9 10 10 10 10 10 11 11 11 10 10 10 9
13 13 15 16 17 17 17 16 16 16 16 15 16 15 15 15 14 14 14 13 13 13 13 12 11 11 10 9 10 10 10 10 9 9 10 10 10 10 11 11 11 10 9
13 13 14 15 16 16 16 16 16 16 15 15 15 15 14 14 14 14 14 14 13 13 13 13 11 11 10 10 10 9 9 9 9 9 9 10 10 10 9 9 9 9 9

GFSGL_925_temp_075.txt.gz
Temp
24 24 24 23 23 23 23 23 23 23 23 23 23 22 22 22 22 21 21 21 21 21 21 21 21 21 21 21 21 21 20 20 17 16 16 16 16 16 16 16 16 16 16
25 25 24 24 23 23 23 23 23 23 22 22 23 23 22 22 22 22 22 22 21 21 21 22 21 21 21 21 21 20 20 20 18 15 15 16 16 16 16 16 15 15 16
26 25 25 25 24 23 23 23 23 23 22 22 22 22 23 22 22 22 22 22 22 22 22 22 22 21 21 20 20 20 20 19 18 16 15 15 15 16 16 15 15 15 15
26 25 25 25 24 24 24 23 23 23 22 22 23 23 23 23 22 22 22 22 22 22 22 22 21 21 20 20 20 19 19 17 17 15 15 15 15 15 16 15 14 15 15
26 26 25 25 25 24 24 24 23 23 23 23 23 23 23 23 22 22 22 22 21 21 21 21 21 21 21 20 20 19 18 17 16 15 14 14 14 15 15 15 14 15 14
26 26 25 25 25 24 24 24 24 23 23 23 23 23 22 22 21 21 21 21 21 21 21 21 21 20 20 19 19 19 19 18 16 15 14 14 14 15 15 15 15 14 14
26 26 26 25 25 24 24 24 24 24 23 23 23 22 22 21 21 20 20 21 20 21 21 21 21 19 19 19 18 18 18 18 18 18 16 15 15 15 15 15 15 16 16
26 26 26 25 25 24 24 25 24 24 23 23 22 22 21 21 20 19 19 20 20 20 20 20 20 19 19 19 19 18 18 18 17 18 17 17 17 16 16 16 15 16 16
27 27 26 26 25 24 25 25 24 23 23 22 22 21 21 20 20 19 18 18 19 20 20 19 20 19 19 18 19 18 18 18 18 18 17 17 16 16 15 15 15 15 15
28 27 27 25 24 24 24 24 24 23 23 22 22 21 21 20 19 18 17 18 18 19 19 19 19 19 19 19 19 18 18 18 18 17 17 17 16 17 16 16 16 15 15
24 25 21 17 17 18 23 24 23 23 22 22 21 21 20 20 19 18 17 17 17 18 18 18 18 19 19 19 19 18 18 18 17 18 18 17 17 16 16 16 15 16 15
20 20 19 18 18 17 16 18 22 23 23 21 21 21 20 19 19 18 17 16 17 17 17 18 18 18 18 18 18 18 17 18 17 17 17 17 17 17 16 16 16 16 15
20 21 20 19 18 16 20 17 21 23 22 20 21 21 20 19 18 18 17 16 17 16 17 17 17 18 17 17 17 17 17 17 18 18 18 18 18 18 19 18 17 16 16
17 21 22 22 22 17 16 15 20 23 22 21 21 20 20 19 18 17 17 16 16 16 16 16 16 17 17 17 17 17 17 17 17 17 17 18 18 18 17 18 18 17 16
17 20 19 21 19 18 18 19 21 22 22 21 21 22 21 17 17 18 17 17 16 16 16 16 16 15 15 16 16 16 16 16 16 17 17 17 17 17 17 16 16 16 15
17 17 17 18 18 18 19 18 18 19 19 21 20 20 19 19 18 17 17 16 16 16 15 15 15 15 15 15 15 15 15 15 15 15 15 15 16 15 16 16 16 15 14
14 15 16 16 17 18 17 17 17 18 18 19 19 20 20 19 18 17 17 17 16 16 15 14 15 15 15 15 15 14 14 14 14 14 14 14 14 14 14 14 14 14 14
14 13 13 13 14 15 15 16 17 17 17 18 18 18 18 18 18 17 17 16 16 16 15 16 16 16 16 15 14 13 13 13 13 13 13 12 12 12 12 12 12 12 12
14 13 13 13 13 13 15 14 16 16 18 18 17 16 16 17 17 17 17 17 18 17 17 16 16 16 15 15 14 14 13 13 12 12 11 11 11 11 11 11 11 11 11
14 13 14 14 14 14 14 14 15 15 15 16 16 15 16 16 16 17 17 17 17 17 16 16 15 15 15 14 14 13 13 12 12 12 12 12 11 11 11 10 10 10 10
15 14 15 15 15 16 15 15 14 15 15 15 15 15 15 15 15 16 17 16 16 15 15 14 14 13 13 13 12 12 12 11 11 12 12 12 11 11 11 11 11 11 10
16 17 17 16 16 16 16 17 17 16 15 15 14 15 16 15 15 15 14 14 15 15 14 13 12 12 12 12 11 11 10 10 10 10 11 11 10 10 10 10 10 10 9
15 16 17 17 17 17 17 16 16 15 15 16 15 16 16 15 15 14 14 14 13 13 13 12 11 11 11 10 10 10 10 10 9 9 10 10 11 11 10 10 10 10 9
14 15 16 17 16 16 16 15 16 16 15 15 15 14 14 14 14 14 13 13 13 12 12 12 11 11 11 10 10 10 9 9 10 10 10 10 10 10 10 10 10 10 9
13 14 15 16 16 15 15 15 15 15 14 14 14 14 13 13 13 13 13 13 13 12 12 11 11 11 10 10 10 10 9 9 9 9 10 10 9 10 10 10 9 9 9
14 15 15 16 16 15 15 15 15 15 15 14 14 14 14 13 13 13 13 13 13 12 12 11 11 11 10 10 9 9 9 8 8 8 9 9 9 9 9 9 9 9 8

GFSGL_925_temp_078.txt.gz
Temp
24 24 23 23 23 23 23 23 22 23 23 22 22 22 21 21 21 21 21 21 21 20 20 21 21 21 21 21 21 21 20 19 17 16 16 16 16 17 16 17 17 17 17
24 24 23 23 23 22 22 23 22 23 22 22 22 22 22 22 21 21 21 21 21 21 21 21 21 21 21 21 21 20 20 19 18 16 16 16 16 16 16 16 16 16 16
24 24 24 23 23 23 23 23 22 23 22 22 22 22 22 22 22 21 21 21 22 21 21 21 21 21 20 20 20 20 20 19 18 16 15 16 16 16 15 15 15 15 15
24 24 24 24 23 23 23 23 23 23 22 22 22 22 22 22 22 22 22 22 22 21 21 21 22 21 20 20 20 19 18 17 17 16 15 15 16 16 15 15 14 14 14
25 24 24 24 24 23 23 23 23 23 22 22 22 23 23 23 22 22 22 22 21 21 21 21 21 20 20 20 19 18 17 17 16 15 15 15 15 15 15 15 14 14 14
25 25 25 25 24 24 23 23 23 23 23 23 22 23 23 22 22 22 21 21 21 21 21 21 20 20 20 19 19 19 19 18 16 15 14 15 15 15 15 15 14 13 13
24 25 25 25 24 24 24 23 23 23 23 22 22 23 22 22 22 21 21 20 21 21 21 21 20 19 19 19 18 18 18 18 18 18 15 15 15 15 15 15 15 14 15
25 24 25 24 22 21 20 18 20 23 23 23 22 22 22 22 21 20 20 20 20 20 20 20 20 20 19 19 18 18 18 18 18 18 18 18 17 16 16 16 15 15 15
24 24 24 22 20 20 16 16 16 17 22 23 22 22 21 21 20 20 19 19 19 19 19 20 20 20 19 18 18 18 18 17 18 18 17 17 17 16 16 15 15 14 14
23 23 22 22 20 22 18 19 20 15 16 21 22 22 21 21 20 19 18 18 18 18 18 19 19 19 19 18 18 18 18 18 17 17 17 17 16 16 15 15 15 15 15
21 23 20 20 22 23 23 20 17 19 16 17 22 22 21 21 20 19 18 17 17 18 18 18 18 18 18 18 19 18 18 18 17 17 17 16 16 16 16 15 15 15 15
19 20 20 21 21 22 19 17 20 23 17 18 21 20 20 20 20 19 18 17 17 17 18 18 18 18 17 18 18 17 17 17 17 17 17 17 16 16 17 17 16 16 15
18 18 19 19 18 18 17 16 16 15 17 18 18 18 19 20 19 18 17 16 16 17 17 17 18 18 17 17 17 17 17 17 17 16 16 17 17 17 17 16 16 16 16
17 18 17 17 16 16 15 15 14 15 17 17 18 19 19 19 19 18 17 16 16 16 16 16 16 17 17 16 16 16 16 16 16 17 17 17 17 17 18 17 16 16 15
17 18 17 16 16 16 15 14 15 17 17 17 18 19 18 17 18 19 18 17 16 16 16 15 15 15 15 16 16 16 16 16 16 16 16 16 16 16 16 17 16 15 14
16 16 16 17 17 17 17 17 17 17 17 18 20 21 20 20 19 17 18 17 16 16 15 15 15 15 15 15 15 15 15 15 15 15 15 15 15 15 15 14 15 15 14
13 13 14 16 16 16 16 16 14 15 16 17 19 20 20 20 17 17 17 16 15 15 15 14 15 15 15 15 14 14 14 14 14 14 14 13 13 13 13 13 13 13 13
13 13 13 13 13 15 16 16 15 14 14 14 16 17 17 17 17 17 16 15 15 15 15 14 15 15 15 14 14 13 13 13 13 12 12 12 12 12 11 12 11 11 11
14 13 13 14 13 13 14 14 15 15 14 12 13 15 16 16 16 16 15 16 16 16 15 15 16 15 15 14 14 13 12 12 11 11 12 12 11 11 11 11 10 10 10
14 14 14 13 14 14 14 14 14 14 14 13 13 14 15 15 15 15 16 16 16 15 15 15 15 14 14 13 13 12 12 12 12 12 12 12 11 11 11 11 11 11 11
15 15 15 15 14 14 15 14 14 14 14 13 14 14 14 15 14 15 15 15 14 14 14 14 13 13 13 12 12 11 11 11 11 11 11 11 10 10 10 11 10 10 10
15 15 15 15 15 16 15 15 15 15 14 14 13 14 14 14 13 14 13 14 13 13 13 13 12 12 12 11 11 10 10 10 10 10 10 10 10 10 10 10 9 9 9
14 15 16 16 16 16 15 15 14 14 14 14 13 13 13 13 13 14 14 13 13 13 12 12 11 11 11 11 10 10 10 10 9 9 10 10 10 10 10 10 10 10 9
14 15 15 15 15 15 14 14 14 14 14 13 14 13 13 13 13 13 13 13 12 12 12 11 11 11 10 10 10 10 10 10 9 10 10 10 9 9 10 10 9 9 10
14 15 15 15 14 14 14 14 14 13 13 13 13 13 13 13 13 12 12 12 12 12 11 11 11 11 10 10 10 9 9 9 9 9 9 9 8 8 9 9 9 9 9
14 15 15 15 15 15 15 14 14 14 14 13 13 13 13 13 13 12 12 12 11 11 10 11 10 10 10 9 9 8 8 8 8 8 8 8 8 8 8 8 8 7 7

GFSGL_925_temp_081.txt.gz
Temp
23 23 23 23 23 23 22 22 22 22 22 23 22 22 21 21 21 20 20 20 20 20 20 20 21 20 20 21 21 21 20 19 17 16 16 17 17 17 17 16 17 17 17
24 23 23 23 23 22 22 22 22 22 23 23 22 22 22 22 21 21 21 21 21 21 21 20 20 20 20 21 21 21 20 20 18 16 16 16 16 16 17 16 16 16 16
24 23 23 23 23 22 22 22 22 22 22 22 22 22 22 21 21 21 21 21 21 21 21 21 21 21 21 20 20 20 20 18 18 17 16 16 16 16 16 15 15 16 16
24 24 23 23 23 23 22 22 22 22 22 22 22 22 22 22 22 22 21 22 21 21 21 21 21 20 20 20 20 19 19 17 17 17 16 16 16 16 15 15 14 14 14
24 23 24 24 24 23 23 22 22 22 22 22 22 22 22 22 22 22 21 21 21 21 21 20 21 20 20 19 19 18 17 17 16 16 15 15 15 15 15 14 14 14 15
23 23 24 24 23 23 20 18 18 19 21 22 22 22 21 22 22 22 22 21 21 21 21 20 20 20 20 20 19 18 18 18 16 16 15 15 15 15 15 15 14 13 13
23 23 23 22 20 19 19 20 20 19 18 17 18 21 22 22 22 22 21 21 21 21 21 20 20 19 20 19 19 18 18 18 18 18 16 16 15 16 15 15 15 14 15
22 22 22 22 20 19 20 21 21 23 20 21 21 20 20 22 22 21 20 20 20 20 20 20 20 20 19 19 19 17 17 17 17 18 17 17 17 16 16 16 15 15 15
22 23 23 22 21 19 20 22 23 22 20 20 21 20 19 20 22 20 20 19 19 19 19 19 20 20 19 18 18 17 17 17 17 17 17 17 16 16 15 15 14 14 14
21 22 22 22 21 20 22 22 23 22 22 22 20 19 20 18 21 20 19 19 19 19 19 19 19 19 19 19 18 18 18 18 17 17 17 17 16 16 16 15 15 14 14
19 20 20 20 20 22 23 23 21 20 18 17 16 17 18 18 21 20 19 18 18 18 18 18 19 19 18 18 18 18 17 17 17 17 16 16 16 15 15 15 14 15 15
18 19 19 19 18 17 18 18 17 17 17 16 16 15 17 18 20 20 19 18 17 17 17 18 18 18 18 18 18 17 17 17 17 17 16 16 16 16 16 16 15 15 15
17 17 18 18 18 16 16 15 15 15 16 16 16 17 17 17 19 19 18 17 16 17 17 17 17 17 17 17 17 17 16 16 17 16 16 16 16 16 16 16 16 15 15
16 17 16 16 17 17 16 14 15 15 15 16 18 17 17 17 17 18 17 16 16 16 16 16 17 17 16 16 16 16 16 16 16 16 16 16 17 17 17 17 17 16 15
15 15 16 16 16 17 15 14 14 14 15 15 17 16 17 17 17 18 17 16 15 16 16 16 16 15 15 15 16 16 16 15 15 15 15 15 16 16 16 16 16 14 14
12 13 13 14 16 16 16 14 15 16 16 17 17 17 17 17 17 17 17 17 16 15 15 15 14 15 15 15 15 15 15 15 15 15 14 14 14 14 15 15 15 15 14
13 13 13 13 14 15 16 16 13 13 15 16 17 17 17 19 17 16 16 16 16 15 15 15 15 15 14 15 14 15 14 14 14 14 13 13 13 13 13 13 13 13 13
13 14 14 13 13 14 15 15 14 13 12 10 12 16 16 17 16 16 16 15 14 14 15 15 15 15 14 14 14 14 13 13 13 12 12 12 12 12 12 12 11 11 11
14 13 13 14 14 13 14 14 14 12 11 10 10 11 13 15 15 15 15 16 15 14 14 14 14 14 14 13 13 13 12 12 12 12 12 11 11 11 11 11 11 11 10
14 15 14 14 14 14 14 13 13 12 12 12 12 13 13 14 14 15 15 15 15 14 14 14 14 13 13 13 12 12 11 11 12 12 12 12 11 11 11 11 10 10 10
14 15 15 14 14 14 14 14 14 13 13 13 13 13 13 14 13 14 14 14 14 14 13 14 14 14 13 12 12 11 11 10 10 10 11 11 11 10 10 10 10 9 9
13 14 15 15 14 15 14 14 14 14 13 13 13 13 14 14 14 13 12 12 12 12 13 13 13 13 12 12 11 11 11 10 10 10 10 10 10 10 10 9 9 9 9
13 14 15 15 15 15 14 14 14 14 14 13 13 13 13 12 12 12 12 12 12 12 12 13 12 11 11 11 10 10 10 10 10 10 10 10 10 10 10 9 9 9 9
13 14 14 14 14 13 13 13 13 13 13 13 12 12 12 12 11 12 12 12 12 12 12 12 11 11 11 10 10 10 10 10 9 9 9 9 9 9 9 9 9 9 8
13 14 14 14 13 13 13 13 12 12 12 12 12 12 11 12 12 12 12 12 12 11 11 11 11 11 10 10 9 9 8 8 8 8 9 9 8 8 8 8 8 7 7
14 14 14 14 14 13 13 12 12 12 12 12 12 12 12 12 12 12 12 12 11 11 11 11 10 10 9 9 9 8 8 8 8 8 7 7 7 7 7 7 7 6 6

GFSGL_925_temp_084.txt.gz
Temp
23 22 22 22 22 22 22 22 22 22 22 22 22 21 21 21 21 20 20 20 20 20 20 20 20 20 20 19 19 19 18 18 18 17 17 17 17 17 17 17 17 17 17
23 23 22 22 22 22 22 22 22 22 22 22 22 21 21 21 21 20 20 20 20 20 20 20 20 20 20 20 20 20 19 19 18 17 17 17 17 17 16 16 16 16 16
24 23 22 22 22 22 22 22 22 22 22 22 22 22 21 21 21 21 21 21 20 20 20 20 21 20 20 20 20 19 18 18 18 17 16 16 16 16 16 15 15 15 15
23 23 22 22 22 22 22 22 22 21 22 22 22 22 21 21 21 21 21 21 21 21 21 21 21 20 20 20 20 19 18 18 16 16 16 16 16 16 16 15 14 14 14
21 20 20 21 23 22 21 21 21 21 21 21 21 21 21 21 21 21 21 21 21 21 21 21 21 20 20 20 19 19 18 17 17 16 15 15 15 15 15 15 14 14 14
20 21 21 18 21 21 21 21 21 22 23 22 21 21 21 21 22 22 21 21 21 20 20 20 20 20 19 19 19 19 18 17 16 16 15 15 15 15 15 15 14 13 14
25 25 25 21 19 21 20 21 22 21 23 23 23 21 21 21 21 21 21 21 21 20 20 20 20 20 19 19 19 18 17 17 17 17 16 16 15 15 15 15 14 14 14
24 23 23 19 18 19 20 20 22 22 25 24 22 21 21 21 21 21 21 21 21 20 20 20 20 19 19 19 19 18 17 17 17 17 17 17 16 16 16 16 15 15 14
20 24 20 18 18 19 19 20 22 22 23 23 23 21 20 21 21 22 20 20 20 20 19 19 20 19 19 18 18 17 17 17 17 17 17 17 17 16 15 15 15 14 14
17 17 18 19 18 18 18 19 20 18 18 20 20 19 19 19 20 21 20 19 19 19 18 19 19 19 19 18 18 18 17 17 17 17 17 17 16 16 15 15 15 14 14
16 17 17 18 18 18 17 17 17 17 17 18 19 19 18 17 19 18 18 18 19 19 18 18 18 18 18 18 17 17 17 17 17 17 16 16 16 15 15 15 15 15 15
16 17 17 16 17 17 17 17 17 18 18 17 16 15 16 17 18 19 19 18 19 18 18 18 18 18 18 17 17 18 17 16 16 16 16 16 16 16 16 15 15 15 15
15 16 16 16 16 16 16 16 16 16 15 14 14 14 15 16 18 17 17 17 17 18 18 18 18 17 17 17 17 17 17 16 16 15 16 16 16 16 16 16 16 15 15
13 14 14 16 16 16 16 17 15 14 14 14 14 15 16 16 16 16 15 15 16 16 16 16 16 16 16 17 16 16 16 16 16 16 16 16 16 16 16 16 15 15 14
12 12 13 14 15 15 16 16 15 14 13 14 14 15 16 16 15 15 16 15 15 16 16 15 15 15 15 15 15 15 15 15 16 15 15 15 15 16 16 16 15 14 14
12 12 12 13 14 14 15 15 15 14 14 14 15 15 16 16 16 16 16 16 16 15 15 14 14 14 15 15 15 15 15 15 15 14 14 14 14 14 14 14 14 13 13
13 13 12 12 13 13 14 15 15 14 13 14 15 17 16 16 16 16 16 15 15 15 14 14 14 14 14 14 15 15 14 14 14 14 13 13 13 13 13 12 12 12 12
14 14 13 13 13 13 14 15 14 13 13 11 12 14 16 17 17 16 15 15 14 14 15 14 14 14 14 14 14 14 13 13 13 12 12 12 12 12 12 12 12 11 11
13 13 13 14 14 13 14 13 13 12 10 10 10 10 13 15 14 14 14 14 14 14 14 14 14 14 14 14 13 13 12 12 12 12 11 11 11 12 11 11 11 11 10
13 14 13 13 14 14 13 13 12 12 12 12 11 10 11 13 12 13 13 14 14 14 14 14 13 13 13 13 12 11 11 12 12 11 12 11 11 10 11 11 10 10 10
12 13 14 14 13 14 14 13 13 13 12 12 13 13 13 14 14 13 14 13 13 13 13 13 13 12 12 12 12 12 11 11 11 11 11 11 11 10 10 10 10 9 9
12 13 13 13 14 13 14 14 13 13 13 13 13 13 13 13 13 12 12 12 13 13 13 13 12 12 12 12 12 11 11 11 10 10 10 10 10 10 9 9 9 8 9
13 13 13 13 13 13 13 14 14 13 13 13 13 12 12 11 11 11 11 11 12 12 11 12 12 11 11 11 11 11 10 10 10 10 10 9 9 9 9 9 9 8 8
13 13 13 13 13 12 12 12 13 13 13 13 12 12 11 11 11 11 11 11 11 11 11 12 11 11 11 11 10 10 10 10 10 9 9 9 9 9 9 8 8 8 8
13 13 13 13 13 12 12 12 12 12 12 12 11 10 10 10 10 10 11 11 11 11 11 11 11 10 10 10 10 9 9 9 9 9 9 9 8 8 8 8 7 6 6
14 14 13 13 13 13 12 12 11 11 11 12 11 11 11 11 11 11 11 11 11 11 11 10 10 10 10 10 9 9 9 8 8 8 8 8 8 7 7 7 6 6 5

GFSGL_925_temp_087.txt.gz
Temp
21 21 21 21 21 21 21 21 21 21 22 21 21 21 20 20 20 20 19 19 18 19 19 19 19 19 20 20 18 18 18 18 18 17 18 18 17 17 17 17 17 17 17
22 21 21 21 21 21 21 21 21 21 21 21 21 21 21 20 20 20 20 20 19 19 19 19 19 19 19 19 20 19 19 19 19 19 17 17 17 17 17 17 17 17 17
22 21 22 22 21 21 21 21 21 21 21 21 21 21 21 21 20 20 20 20 20 20 20 20 20 20 19 20 20 20 19 19 18 18 18 16 16 16 16 16 16 16 16
22 22 21 21 22 21 21 21 21 21 21 21 21 21 21 21 21 21 20 20 20 20 20 20 20 20 21 21 20 19 18 18 18 18 17 16 16 16 16 15 15 15 15
21 21 20 20 20 20 21 21 21 21 21 21 21 21 21 21 21 21 21 21 20 20 20 20 20 20 20 20 20 19 18 18 17 17 16 16 16 15 15 15 14 14 14
20 19 20 20 19 20 20 22 22 20 20 20 20 20 20 21 21 21 21 21 20 20 20 20 20 20 20 20 20 19 19 19 18 18 17 17 16 15 15 15 14 13 14
18 19 19 22 23 23 22 23 21 21 21 20 20 20 20 20 21 21 21 21 21 21 20 20 20 20 20 20 19 19 18 17 17 18 18 18 18 16 15 15 15 15 15
18 19 21 23 23 24 26 23 20 19 21 21 21 20 20 21 21 21 21 20 20 20 20 20 20 20 20 19 19 17 17 17 17 17 17 17 17 17 16 16 15 15 15
19 19 19 20 22 20 19 25 20 18 19 20 19 19 19 20 20 21 21 20 20 20 20 19 19 19 19 19 19 17 17 17 16 17 17 17 17 16 16 15 15 14 14
16 17 17 18 18 19 21 21 18 18 18 18 18 17 17 18 19 20 20 20 21 20 19 18 19 19 19 19 18 19 18 17 17 16 17 17 17 16 15 15 15 15 15
16 17 17 18 17 18 18 17 17 17 17 17 17 18 17 17 18 20 20 19 19 18 18 19 19 19 19 19 18 19 19 17 17 17 18 17 16 16 15 15 15 16 16
15 16 16 17 17 16 17 17 17 17 16 16 17 17 18 17 17 18 18 19 18 17 18 18 19 19 19 18 18 18 18 17 18 18 18 18 17 16 17 16 15 15 16
14 14 15 15 16 16 16 16 17 16 16 17 17 18 18 18 17 16 17 18 17 17 17 18 18 18 18 17 17 17 17 17 18 17 19 18 18 17 16 16 15 15 15
13 13 13 13 14 15 16 16 16 16 15 15 14 15 16 17 17 17 16 15 15 15 16 16 18 17 17 16 16 16 17 18 18 19 19 18 17 17 17 15 15 15 14
15 15 14 13 13 14 15 15 15 15 15 15 14 15 17 17 17 17 16 14 14 15 15 15 15 15 16 16 17 17 17 16 17 17 17 17 18 17 17 16 16 14 16
15 15 14 13 14 14 14 14 15 14 14 15 14 14 14 15 16 16 14 14 15 15 15 14 15 16 17 17 17 16 14 15 15 15 16 16 15 14 14 14 15 16 16
14 14 14 15 14 14 14 14 15 13 12 13 14 16 16 16 16 15 13 15 15 15 14 14 15 15 16 15 15 15 14 14 14 14 14 14 14 13 14 13 13 13 12
13 13 14 15 15 14 14 14 14 13 13 12 12 14 15 15 16 16 15 15 14 14 14 14 14 14 14 14 14 14 14 14 13 13 13 13 13 12 12 12 12 12 11
14 14 14 15 15 14 15 14 14 13 12 12 10 10 12 15 15 15 14 13 14 14 14 14 15 14 14 14 14 13 12 12 12 12 12 13 13 13 13 13 12 12 12
14 13 12 14 15 15 16 13 14 13 13 13 12 12 12 12 12 12 13 14 13 13 14 13 14 13 13 13 12 12 12 13 13 14 13 13 13 14 13 13 13 13 12
14 14 13 16 17 16 16 14 13 13 13 12 12 13 13 13 12 13 14 14 13 13 13 12 12 12 12 12 12 12 12 12 13 13 13 13 13 13 12 11 11 12 12
14 15 15 16 16 17 16 15 13 13 13 13 12 12 13 12 12 12 13 13 13 13 13 13 12 12 11 11 11 12 12 12 12 12 12 12 12 12 12 12 12 12 12
15 15 16 16 16 15 16 16 14 13 13 12 12 12 12 12 11 11 11 12 12 12 12 12 12 11 11 11 11 11 12 12 11 12 11 11 11 11 11 11 11 11 11
15 15 15 15 15 15 13 13 13 13 13 12 12 11 11 10 10 10 10 10 11 11 12 11 12 12 11 11 11 10 10 9 10 10 11 11 11 10 11 11 11 10 11
13 14 14 15 15 15 15 12 12 12 12 11 11 11 11 10 10 9 9 10 9 9 10 10 10 10 11 11 10 10 10 10 10 10 9 10 10 10 11 11 10 10 10
14 13 13 13 12 12 14 13 12 11 11 11 11 11 10 9 10 10 9 9 9 9 9 9 10 10 10 10 10 10 10 10 10 9 9 9 9 10 10 9 9 10 9